ECMWFNIL_sfc_thetae_000.txt.gz
Theta_e
283 282 282 282 282 282 281 281 281 280 280 280 280 280 281 281 281 281 280 281 281 281 281 281 281 281 282 282 282 282 281 281 281 281 281 280 280 280 280 280 280 280
282 281 281 281 280 280 281 281 280 280 279 280 280 280 280 280 280 280 280 280 280 280 280 281 281 281 281 281 281 281 281 280 280 281 280 280 280 280 279 280 279 280
281 280 280 280 280 279 279 279 279 279 279 279 279 279 279 280 279 280 279 279 279 279 280 280 280 280 280 280 280 280 280 280 279 280 280 279 279 279 279 279 279 279
280 279 279 279 279 278 278 278 278 278 278 278 278 279 279 279 279 279 279 279 278 278 279 279 279 279 279 279 279 278 279 279 279 280 279 279 279 279 278 279 279 278
279 279 278 278 278 278 277 277 277 278 278 278 278 278 278 278 278 278 277 277 278 277 277 277 278 278 278 278 278 277 278 278 279 279 278 278 278 278 278 278 278 277
278 278 278 277 277 277 277 277 277 277 277 277 277 277 277 277 277 276 276 276 276 276 276 276 276 277 277 277 277 277 277 277 278 278 278 277 277 278 278 277 277 277
277 277 277 277 276 276 276 276 276 277 277 277 277 276 276 276 275 276 276 275 275 275 275 276 275 276 276 276 276 275 276 276 276 276 276 276 276 276 277 277 276 276
277 277 276 276 276 276 275 276 276 276 276 276 275 275 275 275 275 275 275 275 275 274 275 275 275 275 275 274 274 274 274 274 274 274 274 274 274 274 274 275 276 275
277 276 276 276 275 276 275 276 276 276 276 275 275 275 275 275 275 275 274 274 274 274 274 273 273 273 273 273 272 272 272 272 272 272 272 271 271 272 272 273 273 273
276 276 275 275 275 276 275 276 275 275 275 275 274 275 274 274 274 274 274 273 273 272 272 272 272 272 271 271 270 270 270 270 270 270 270 270 270 270 270 271 271 270
276 276 275 275 275 276 275 275 275 275 275 274 274 273 273 273 273 273 272 271 271 271 271 270 270 270 270 269 269 269 269 269 269 269 269 269 269 269 270 269 269 269
276 275 275 275 275 275 274 274 274 274 274 273 273 272 271 271 271 270 270 270 270 270 270 269 269 269 269 269 269 269 268 268 268 268 268 268 268 268 268 268 268 268
275 275 275 275 275 274 274 274 273 273 272 271 271 270 269 269 269 269 269 269 269 269 269 269 268 268 268 268 268 268 268 268 267 267 268 268 268 268 268 269 269 269
275 275 275 274 274 273 273 272 272 271 270 269 269 268 268 268 268 268 268 268 268 268 269 269 268 268 268 269 269 269 268 267 267 267 268 268 268 269 269 269 269 269
275 274 274 273 272 271 270 270 269 269 268 267 267 267 267 267 267 267 267 267 268 268 268 268 268 268 268 268 268 268 268 268 268 268 268 268 268 269 270 270 270 270
274 273 272 271 270 269 269 268 267 267 266 266 265 266 266 266 266 266 267 267 267 268 268 268 268 268 269 270 271 270 270 270 270 270 270 269 269 269 270 270 271 271
272 271 271 269 269 268 267 266 266 265 265 265 265 265 265 266 266 266 267 267 267 267 267 267 268 268 270 271 273 273 271 270 270 270 270 270 270 269 269 270 271 271
271 270 269 268 267 266 265 265 264 264 264 264 264 264 265 266 266 266 267 267 267 267 267 267 267 269 271 272 273 273 273 271 271 270 270 270 270 270 270 270 271 271
270 268 267 266 266 265 264 263 263 263 263 263 264 265 265 265 266 266 266 267 267 267 266 267 267 269 271 272 273 274 274 273 271 271 271 271 271 271 271 271 271 271
268 267 267 266 265 264 264 263 263 263 264 264 264 265 265 265 265 265 266 266 266 266 266 267 267 269 271 272 273 274 274 274 272 271 271 271 270 270 270 271 271 271
267 266 266 265 264 263 263 262 262 263 263 264 265 265 265 265 265 265 265 265 265 266 266 266 266 270 272 272 273 274 275 275 272 271 270 270 271 271 271 271 272 272
266 266 265 264 264 263 262 262 263 263 263 264 264 264 265 265 265 265 265 264 265 265 265 265 266 270 271 272 273 274 275 271 271 271 271 271 271 271 271 271 272 272
266 265 264 263 263 262 262 262 262 262 263 264 263 264 264 264 264 264 265 265 264 265 265 265 266 268 271 272 273 274 273 271 271 271 271 271 271 271 272 271 272 272
266 265 263 263 262 261 261 262 262 263 263 263 263 263 263 264 264 264 264 265 264 264 265 264 265 268 271 272 273 274 274 271 271 270 270 271 271 271 272 271 272 274
264 263 263 262 261 261 261 260 261 262 263 263 263 263 263 264 264 264 264 264 264 264 266 266 265 267 271 272 273 274 273 272 271 271 270 270 271 271 272 272 272 273
262 261 261 260 260 260 261 261 262 262 262 262 262 263 263 264 263 263 263 263 264 265 265 267 267 267 268 272 273 274 275 272 272 271 270 270 271 271 270 272 272 272

ECMWFNIL_sfc_thetae_003.txt.gz
Theta_e
288 287 287 286 286 286 285 285 285 284 284 284 283 284 284 284 284 283 283 283 282 282 282 282 282 282 283 283 283 283 282 282 282 282 282 282 282 281 281 281 281 281
286 286 286 286 285 285 285 285 284 284 283 283 283 283 283 283 283 283 282 282 282 282 282 282 282 282 282 282 282 281 281 281 281 282 281 281 281 281 281 281 281 281
285 285 284 284 283 283 283 284 284 283 283 283 283 282 282 282 282 282 282 281 281 281 281 281 281 281 281 281 281 281 280 280 280 281 281 280 281 281 281 281 281 280
284 284 283 283 283 282 282 282 282 282 282 281 281 282 281 282 281 281 281 281 280 280 280 280 280 280 280 280 280 280 280 279 280 280 279 280 280 280 280 280 280 280
283 283 282 282 282 282 281 280 280 280 280 280 281 281 281 280 280 280 280 280 280 279 279 279 279 279 279 279 279 278 279 279 279 279 278 278 279 279 279 279 279 279
283 282 282 281 281 280 280 280 280 280 280 280 280 280 280 279 279 279 279 278 278 278 278 278 278 278 278 278 278 278 278 278 278 278 277 277 278 279 279 279 278 278
281 281 280 280 280 280 279 279 280 280 280 280 280 279 279 278 278 278 278 278 277 277 277 277 277 277 277 277 277 276 277 277 276 276 276 276 277 277 277 277 277 277
281 280 280 280 279 279 279 279 279 279 279 279 278 278 278 278 277 277 277 277 277 276 276 276 276 276 276 276 276 275 275 275 275 275 274 274 275 274 275 276 276 275
280 279 279 279 279 279 278 278 279 279 279 278 278 278 278 277 277 277 277 276 276 276 276 276 276 275 275 275 274 274 274 274 274 273 272 272 272 272 273 273 273 273
279 279 279 278 278 278 278 278 278 278 278 277 277 277 277 277 277 276 276 276 275 275 275 275 274 274 274 274 273 273 272 272 272 272 272 271 271 271 271 271 271 271
279 279 278 278 278 278 278 278 278 278 278 277 277 276 276 276 276 276 275 275 274 274 274 273 273 273 272 272 272 272 272 271 271 271 271 271 270 270 271 270 270 270
279 278 278 278 278 278 278 278 278 277 277 277 277 276 276 276 275 274 274 273 273 273 273 272 272 272 271 271 271 271 271 271 271 270 270 270 270 270 270 270 269 269
278 278 278 278 278 278 278 277 277 277 276 276 276 275 274 274 273 273 273 272 272 272 271 271 271 271 271 271 271 271 270 270 270 270 270 270 270 270 270 270 270 270
278 279 278 278 278 278 277 277 276 276 275 275 274 273 272 272 272 271 271 271 271 271 271 271 271 270 270 270 270 270 270 270 270 270 270 270 270 270 270 270 270 270
279 279 278 278 277 277 276 275 275 274 274 273 272 271 271 271 271 270 270 270 270 270 270 270 270 270 270 270 270 270 270 270 270 270 271 271 271 271 271 271 271 271
278 277 277 276 276 275 274 274 273 272 271 270 270 270 269 269 269 269 269 269 269 270 270 270 270 270 271 272 273 271 271 271 271 271 271 271 271 270 271 271 271 272
277 276 275 274 274 274 273 272 271 270 269 269 268 268 268 268 268 268 268 269 269 269 269 270 270 270 272 273 274 275 273 272 272 272 272 272 272 271 271 271 272 272
275 275 274 273 272 271 270 269 269 268 267 267 267 267 267 267 267 268 269 269 269 269 269 269 269 271 273 274 274 275 275 273 273 272 272 272 272 272 272 272 272 272
274 273 272 271 270 269 268 267 267 266 266 266 266 267 267 267 267 268 268 269 269 268 268 269 269 271 272 273 274 275 276 275 273 273 272 272 272 272 271 271 271 271
273 271 270 269 268 267 266 266 265 265 266 266 266 267 266 267 267 268 268 268 268 268 268 268 268 270 272 273 274 275 276 275 273 273 272 272 272 272 271 271 271 271
271 270 269 268 267 266 265 265 265 265 266 266 266 266 266 267 267 267 267 267 267 267 267 267 268 271 272 274 274 275 276 276 273 272 272 271 272 272 272 272 272 272
270 269 268 267 266 265 265 265 265 265 265 266 266 267 267 267 267 267 266 266 266 266 266 266 267 271 272 273 274 275 276 273 272 271 271 271 272 272 273 273 273 273
270 269 267 266 266 265 265 265 265 265 265 266 265 266 266 266 266 266 266 266 266 266 265 265 266 269 271 273 274 275 274 272 272 271 271 271 272 272 273 273 273 273
270 268 267 266 265 265 264 265 265 266 265 266 265 265 266 266 266 266 266 266 266 265 266 265 265 268 271 273 274 275 274 272 271 271 271 271 271 272 273 273 274 276
268 267 267 266 265 265 265 265 264 265 265 266 265 266 265 266 266 265 265 265 266 265 267 267 266 268 271 272 274 274 274 272 272 271 271 271 271 271 272 273 273 275
267 266 265 265 264 264 264 264 265 264 264 265 265 265 265 266 266 265 264 264 265 265 266 267 267 268 269 272 274 274 275 273 272 271 270 271 271 272 272 273 274 274

ECMWFNIL_sfc_thetae_006.txt.gz
Theta_e
285 285 285 284 283 284 283 282 282 281 281 281 280 281 281 281 282 281 280 280 280 279 279 279 279 279 281 279 279 280 280 279 279 279 278 279 278 278 279 278 278 278
284 284 284 283 283 283 282 282 281 281 280 280 280 280 281 281 281 280 280 279 279 279 279 279 279 279 278 278 278 277 277 278 277 280 278 277 278 278 278 278 278 279
284 284 283 283 282 282 281 281 281 280 280 280 280 279 280 280 279 279 279 279 278 278 279 278 278 278 277 277 277 277 277 276 276 276 277 277 277 277 278 278 278 278
284 284 283 283 282 281 281 280 280 279 279 279 279 279 280 280 279 278 278 279 277 277 277 277 277 277 277 276 276 276 276 276 276 276 276 276 277 277 277 277 278 278
283 283 282 282 281 281 280 280 279 279 278 278 278 278 279 278 278 277 277 277 277 276 277 277 276 276 276 276 276 275 275 276 275 275 275 275 276 276 277 277 276 276
282 282 282 281 280 280 279 279 279 278 277 277 278 278 277 277 277 276 276 276 276 276 276 276 275 275 275 275 275 275 275 275 275 274 274 274 274 275 276 276 275 275
282 281 280 280 279 279 279 278 278 278 277 277 277 277 276 276 276 276 276 276 275 276 275 274 274 274 274 274 274 274 274 273 273 273 273 274 274 274 274 274 274 274
281 280 280 279 278 278 277 277 277 277 276 276 276 276 276 275 275 275 275 275 274 274 274 274 274 274 273 273 273 273 273 274 273 272 272 272 272 272 272 273 273 273
280 279 279 278 277 277 277 277 277 276 276 276 275 275 275 275 275 275 274 274 274 274 274 273 273 273 273 273 273 272 272 271 272 271 271 271 271 271 271 271 271 271
280 279 278 278 277 277 276 276 276 276 276 276 275 275 275 275 275 274 274 274 274 273 273 273 273 273 272 272 272 271 271 271 270 270 270 270 270 270 270 270 269 269
279 278 277 277 277 277 276 276 276 276 276 275 275 275 275 274 274 274 274 274 273 273 273 272 272 272 272 271 271 270 270 270 270 270 270 270 269 269 271 270 269 269
278 278 277 277 277 276 276 276 276 275 275 275 275 274 274 274 274 274 274 273 273 272 272 271 271 270 270 269 269 269 269 269 269 269 269 269 269 269 269 269 269 268
278 277 277 277 277 276 276 276 276 275 275 274 275 274 274 273 273 273 272 272 271 271 271 271 270 270 269 269 269 269 269 269 269 269 269 269 269 269 269 269 269 269
278 277 277 277 277 276 276 276 275 275 275 274 274 274 273 273 272 272 271 271 271 271 271 271 270 270 269 269 269 269 268 268 268 268 269 269 269 270 270 271 271 271
278 277 277 277 276 276 275 275 275 275 275 275 274 273 273 272 272 272 271 271 271 271 271 271 270 270 270 269 269 269 268 268 268 269 269 270 270 271 271 272 272 272
277 277 277 276 276 275 275 275 275 275 274 273 273 272 271 271 271 271 270 270 270 270 270 270 270 270 271 273 273 269 269 269 270 270 270 271 271 271 272 272 272 272
277 276 276 276 275 275 274 274 274 273 272 271 270 270 269 270 270 269 269 269 269 269 269 270 270 270 273 274 275 276 274 272 272 272 272 272 272 272 272 272 272 273
276 276 275 275 274 274 273 272 271 271 270 269 269 268 269 269 268 268 269 269 269 269 269 270 270 272 274 275 276 276 276 274 273 273 273 273 273 272 272 272 272 272
276 275 274 274 274 273 272 270 270 270 269 268 268 268 268 267 268 268 268 269 269 269 269 269 269 272 274 275 275 276 276 276 274 274 273 273 273 273 272 272 272 272
275 274 273 273 272 271 270 269 268 268 268 268 268 268 267 267 268 268 268 269 269 269 269 269 269 271 273 274 275 276 276 276 274 274 274 273 273 272 271 271 271 271
275 274 272 271 270 269 268 267 267 267 267 267 267 267 267 267 267 267 268 268 269 269 268 268 268 271 273 274 275 276 276 276 274 274 273 272 272 272 272 272 272 272
274 273 270 269 268 267 267 267 267 267 267 267 267 267 268 268 268 268 268 268 268 267 267 267 267 271 272 274 274 275 276 274 273 272 272 271 271 272 272 272 273 273
274 271 269 268 267 267 267 266 266 266 267 267 267 267 267 267 267 268 268 267 267 267 266 266 266 269 271 273 274 275 275 273 272 272 272 271 271 272 272 272 273 273
273 270 269 268 267 266 266 267 267 267 266 267 267 267 267 267 267 267 267 267 267 266 267 266 266 268 271 272 274 274 274 273 272 272 271 271 271 272 272 273 274 276
271 270 269 268 267 267 267 266 266 266 267 267 267 267 267 267 267 266 266 267 267 267 268 267 266 268 271 272 273 274 274 273 272 271 271 271 271 272 273 273 274 275
270 269 268 267 267 267 267 267 267 266 266 266 266 266 266 266 266 266 265 266 266 266 266 267 267 267 268 272 273 274 275 273 272 271 270 271 272 272 272 273 274 273

ECMWFNIL_sfc_thetae_009.txt.gz
Theta_e
286 285 285 285 285 285 284 284 283 283 283 282 282 282 282 282 282 281 281 281 280 280 279 279 279 279 280 279 279 279 279 278 277 277 277 278 277 277 278 277 277 277
285 285 285 285 284 284 284 284 283 283 282 282 282 281 281 281 281 281 280 280 280 279 279 279 279 278 278 278 278 278 277 277 276 279 277 276 277 277 277 277 277 277
285 284 285 284 284 284 283 283 283 282 282 281 281 281 281 281 281 280 280 280 279 278 278 278 278 278 278 278 277 277 277 276 276 276 277 276 276 277 277 277 277 277
285 285 285 284 284 283 283 282 282 281 281 280 280 280 281 281 280 279 279 280 278 278 278 277 277 277 277 277 277 277 276 276 275 275 275 275 276 276 276 276 277 277
284 284 284 284 283 283 282 282 281 281 280 280 280 280 280 279 279 278 278 278 278 277 277 277 277 277 277 276 276 276 275 275 275 275 275 275 275 275 275 276 275 275
284 284 284 284 283 282 282 282 281 280 280 279 279 279 279 279 278 278 278 277 277 277 276 276 276 276 276 276 275 275 275 275 274 274 274 274 274 274 275 275 274 273
283 283 283 283 282 282 281 281 280 280 280 279 279 279 278 278 277 277 277 277 276 276 276 276 275 275 275 275 275 274 274 274 273 273 273 273 273 273 273 273 273 272
283 283 282 282 281 281 281 280 280 280 279 278 278 278 278 277 277 277 276 276 276 275 275 275 275 275 274 274 274 273 272 274 273 272 272 272 272 272 272 273 272 271
282 282 282 281 281 280 280 280 279 279 278 278 278 277 277 277 276 276 276 276 275 275 275 274 274 274 274 273 273 273 272 272 273 272 272 272 272 271 271 271 271 271
282 281 281 280 280 280 280 279 278 278 278 278 277 277 276 276 276 276 275 275 275 274 274 274 273 273 273 273 273 272 272 272 272 272 272 271 271 271 271 271 270 270
281 281 280 280 280 279 279 278 277 277 277 277 276 276 275 275 275 275 275 274 274 274 273 273 273 273 273 272 272 273 273 272 272 271 271 271 271 271 272 271 270 269
281 280 280 280 279 279 278 277 277 276 276 276 276 275 275 275 275 274 274 274 274 274 274 273 273 273 273 272 272 271 271 271 271 271 271 271 271 270 270 270 270 269
281 280 280 279 279 278 277 276 276 276 276 275 275 275 274 274 274 274 274 273 273 273 273 273 272 272 271 271 270 270 270 270 270 270 270 270 270 270 270 270 270 270
281 280 279 279 278 277 276 276 276 275 275 275 275 274 274 274 274 274 273 273 273 272 272 272 271 271 270 270 270 270 269 269 270 269 269 269 269 270 270 270 270 270
280 279 279 278 277 276 276 275 275 275 275 274 274 274 274 274 274 273 272 272 272 271 271 271 271 270 270 270 269 269 270 269 269 269 269 269 269 270 270 271 271 271
280 279 278 277 276 276 275 275 275 274 274 274 274 274 273 273 272 272 272 271 270 270 270 270 270 270 272 275 273 270 269 269 269 269 270 270 270 270 271 272 272 272
278 278 277 276 276 276 275 275 274 274 273 273 273 272 272 271 271 271 270 270 270 270 269 270 270 270 274 276 277 276 271 269 269 270 270 271 271 271 272 272 273 273
278 277 276 276 275 275 274 274 274 273 273 272 271 270 270 270 270 270 270 271 271 270 270 270 270 273 276 277 277 278 276 270 271 271 272 272 273 272 273 273 273 273
277 276 276 275 275 275 274 273 273 273 272 271 270 270 269 270 271 270 270 270 270 270 270 270 270 274 276 277 277 278 278 277 274 274 273 273 273 273 273 273 273 272
277 276 276 275 275 274 274 273 272 272 271 271 270 270 270 270 270 269 270 270 270 270 270 270 270 274 277 277 277 278 278 278 275 274 274 274 274 274 273 272 272 271
277 276 276 275 275 274 273 272 272 271 270 270 270 270 270 269 269 269 269 269 270 270 270 270 270 274 277 277 277 277 278 278 275 275 274 274 273 272 272 272 271 271
277 276 276 275 274 273 272 272 272 271 270 269 269 269 269 269 269 269 269 269 270 270 269 269 270 275 276 276 276 277 278 276 275 274 273 272 272 272 272 272 272 272
277 276 275 274 273 272 272 272 271 270 269 269 268 268 268 268 268 269 269 269 269 269 269 268 269 273 275 275 276 277 276 274 273 272 272 272 272 272 272 272 273 273
277 276 275 273 272 272 272 272 270 270 269 269 268 267 267 267 268 268 269 269 269 268 268 268 268 271 274 275 275 276 275 273 272 272 272 272 271 272 272 273 273 275
277 276 275 273 272 272 272 270 269 269 269 268 268 268 267 267 268 267 268 268 268 268 270 268 267 269 273 274 275 275 275 273 272 271 271 271 271 271 272 273 273 275
277 276 274 273 273 272 271 270 270 268 267 268 268 267 267 267 267 267 267 267 268 267 269 269 267 267 270 274 274 275 276 273 272 271 270 270 271 271 271 273 274 274

ECMWFNIL_sfc_thetae_012.txt.gz
Theta_e
287 287 287 286 286 286 286 285 285 285 284 284 284 284 283 283 283 282 282 281 281 280 280 280 280 280 280 279 279 279 279 278 278 278 278 278 277 277 277 276 276 276
287 286 287 286 285 285 285 285 285 284 284 284 284 283 283 283 282 282 281 281 281 280 280 280 280 279 279 279 278 278 278 278 277 279 277 277 277 277 277 277 276 276
286 286 286 285 285 285 284 284 284 284 284 283 283 283 283 283 282 282 281 281 280 280 280 279 279 279 279 278 278 278 277 277 277 278 278 277 277 277 276 276 276 276
286 286 286 285 285 284 284 283 283 283 282 282 282 282 282 282 282 281 281 281 280 279 279 279 279 278 278 278 278 277 277 277 277 277 277 276 276 276 276 276 276 276
286 286 286 285 285 284 283 283 282 282 282 282 281 281 281 281 281 280 280 280 279 279 278 278 278 278 278 278 277 277 277 276 276 276 276 275 275 276 275 276 275 275
286 286 286 285 285 283 282 283 283 282 282 281 281 281 281 281 280 280 280 279 279 279 278 278 278 278 278 277 277 277 276 276 275 275 275 274 274 275 275 275 274 274
285 285 285 285 284 283 283 282 282 282 281 281 280 280 280 280 280 280 279 279 278 278 278 277 277 277 277 277 276 275 275 275 274 274 274 273 273 273 274 274 274 273
285 284 284 284 283 283 283 282 282 281 281 280 280 280 280 280 280 279 279 279 278 278 278 277 277 277 277 276 275 275 274 275 274 274 273 273 273 272 273 273 273 272
285 284 283 283 283 283 282 282 281 281 280 280 280 279 279 280 279 279 279 278 278 277 277 277 277 276 276 275 275 274 274 274 274 273 273 273 272 272 272 272 271 271
284 284 283 283 282 283 282 282 281 280 280 280 279 279 279 279 279 278 278 278 277 277 276 276 276 275 275 275 275 274 274 273 273 273 273 272 272 271 271 271 270 270
284 283 282 282 282 282 282 281 280 280 279 279 279 278 279 278 278 278 277 277 277 276 276 275 275 275 274 274 274 274 273 273 273 272 272 272 271 271 272 270 270 269
284 283 282 282 282 282 282 281 280 279 279 279 279 278 278 278 277 277 277 277 276 276 275 275 275 274 274 274 273 273 273 272 272 271 271 271 270 270 270 270 270 269
284 283 283 283 282 282 282 280 279 279 279 278 278 278 277 277 277 276 276 276 276 275 275 274 274 274 273 273 273 272 272 271 271 270 270 270 270 270 270 270 270 270
284 284 283 283 282 281 281 280 279 278 278 278 278 277 277 277 276 276 275 275 275 274 274 274 273 273 273 272 272 272 271 271 270 270 270 270 270 270 271 271 271 270
284 283 283 282 281 280 279 279 278 278 278 277 277 277 277 276 276 276 275 274 274 273 273 273 273 273 272 272 271 271 271 270 270 270 270 269 270 270 270 270 270 270
283 282 281 281 280 279 279 279 278 277 277 277 276 276 276 276 275 275 274 274 273 273 272 273 272 272 274 277 276 272 271 270 270 270 270 270 270 270 270 270 271 271
282 281 281 280 280 279 278 278 277 277 276 276 276 275 275 274 274 274 273 273 273 272 272 272 272 273 277 279 279 277 272 271 270 270 270 270 270 270 270 271 272 272
282 281 280 279 279 278 277 277 276 276 275 275 275 274 274 274 274 274 274 273 273 273 272 272 272 276 280 280 280 279 276 271 270 270 270 270 271 271 271 272 272 273
281 280 279 278 278 277 277 276 275 275 275 274 274 274 274 273 274 274 273 273 273 272 272 272 272 278 281 281 281 280 278 273 270 270 270 271 271 272 272 273 273 273
280 279 278 278 277 276 275 275 275 275 275 275 275 274 274 274 274 273 273 273 273 272 272 272 271 277 281 282 281 281 279 275 270 270 271 272 273 273 273 273 273 273
280 279 278 277 277 276 275 275 275 275 275 275 275 274 274 274 273 273 273 273 272 272 272 271 271 278 281 282 282 282 280 276 271 272 273 273 274 274 274 274 273 272
279 278 278 277 276 276 275 275 275 275 275 275 274 274 274 274 274 273 272 272 272 271 271 270 270 278 281 282 282 282 282 275 273 273 273 274 274 274 274 273 272 272
279 278 277 276 276 275 275 275 275 275 275 275 274 274 273 273 272 272 272 271 271 270 270 269 269 277 281 282 282 282 281 275 274 273 273 273 273 273 272 272 271 271
279 278 278 277 276 276 276 276 276 276 275 274 273 273 273 272 272 271 270 270 270 270 270 269 269 276 281 281 281 282 279 273 273 273 273 272 272 272 271 270 271 274
279 279 278 277 276 276 276 276 275 275 274 273 273 273 272 271 270 270 269 270 270 270 273 270 269 275 281 281 281 281 278 274 273 272 271 271 270 269 270 269 270 273
280 279 279 278 277 276 276 276 275 274 272 272 272 272 271 270 269 269 268 268 269 268 270 269 269 272 277 281 280 281 279 274 273 271 270 270 270 269 268 269 271 272

ECMWFNIL_sfc_thetae_015.txt.gz
Theta_e
288 288 288 288 288 288 287 286 286 286 286 285 285 285 285 284 284 283 283 283 282 282 281 281 281 281 281 281 281 280 280 280 279 279 279 279 278 278 278 277 277 277
287 287 287 287 287 287 287 286 285 285 285 285 285 285 285 284 284 283 283 282 282 281 281 281 281 281 280 280 280 280 279 279 278 279 278 278 278 278 278 277 277 277
287 286 286 286 287 286 285 284 285 285 285 285 284 284 284 284 283 283 283 282 282 281 281 281 280 280 280 280 280 279 279 278 278 278 278 278 277 277 277 277 277 277
287 287 287 287 286 286 285 284 284 284 284 283 284 284 284 284 283 282 282 282 281 281 280 280 280 280 280 279 279 279 278 278 278 278 277 277 277 277 277 277 277 277
287 287 287 287 287 286 284 284 284 284 284 284 283 283 283 282 282 282 281 281 281 280 280 280 280 279 279 279 279 278 278 277 277 277 277 276 276 277 276 277 276 276
287 287 287 287 286 285 284 284 284 284 283 283 283 283 282 282 282 282 281 281 280 280 279 279 279 279 279 278 278 278 277 277 276 277 276 276 275 276 276 276 275 275
287 286 286 286 286 285 285 284 284 284 283 283 282 282 282 282 282 281 281 281 280 280 279 279 279 278 278 278 278 277 276 276 276 276 276 275 275 275 275 275 275 274
286 286 286 286 285 285 284 284 283 283 283 282 282 282 282 282 281 281 281 281 280 279 279 279 279 278 278 278 277 276 276 276 276 276 275 274 274 274 274 274 274 273
286 285 285 285 284 284 284 284 283 283 282 282 282 281 281 282 281 281 281 280 280 279 279 279 278 278 278 277 277 276 276 276 276 276 275 274 274 274 274 274 273 273
285 285 284 284 284 285 284 284 284 282 282 282 281 281 280 281 281 281 280 280 279 279 279 278 278 278 277 277 277 277 276 276 276 276 275 275 274 274 273 273 273 272
285 285 284 284 284 285 284 284 283 282 281 281 281 281 281 280 280 280 280 280 279 279 278 278 278 277 277 277 277 277 277 276 276 275 275 274 274 274 275 273 272 272
285 285 284 284 284 284 284 284 284 282 281 281 281 281 280 280 280 280 280 279 279 279 278 278 278 277 277 277 277 276 276 276 275 275 275 274 273 273 273 273 272 271
285 285 285 285 285 285 285 284 283 282 281 281 281 281 280 280 280 280 280 280 279 279 278 278 277 277 277 276 276 276 275 275 274 274 274 273 273 273 272 272 271 271
285 285 285 285 285 284 284 283 283 282 281 281 280 280 280 280 279 279 279 279 279 279 278 278 277 277 276 276 276 275 275 274 274 273 273 272 272 272 271 271 271 270
286 285 285 285 284 283 283 283 282 282 281 280 280 280 280 280 279 279 278 278 278 278 277 277 277 276 276 276 275 275 275 274 273 273 272 272 271 271 271 271 271 271
285 285 284 284 283 283 283 282 282 281 280 279 279 279 279 279 278 278 278 278 277 277 277 277 277 277 278 280 279 275 274 274 273 272 272 271 271 271 270 271 271 270
284 284 283 283 283 283 282 281 281 279 279 279 278 278 278 278 278 278 277 278 277 277 276 276 276 277 280 282 282 280 275 273 272 272 271 272 271 271 270 270 270 270
284 283 282 283 282 282 281 281 280 278 278 278 277 277 277 277 277 277 277 277 277 277 276 276 276 279 282 283 283 282 278 273 273 272 271 271 271 271 270 270 270 270
282 282 282 281 281 281 280 279 279 278 278 277 277 278 277 277 277 277 277 277 277 276 276 276 276 280 282 283 283 282 280 276 273 272 272 271 271 271 270 270 271 271
282 282 282 282 281 280 279 279 278 278 279 278 278 277 277 277 277 277 277 276 276 276 276 276 276 280 283 283 283 283 281 277 272 272 272 271 271 271 271 271 271 271
282 282 282 281 280 279 278 278 278 278 278 278 278 277 277 277 276 276 276 276 276 276 276 275 275 280 283 284 284 283 282 277 272 272 271 271 271 272 272 272 273 273
281 281 281 280 279 278 278 278 278 278 278 278 277 277 277 277 277 277 276 276 276 276 275 275 275 281 283 284 284 284 282 273 271 271 271 271 271 272 273 273 274 273
280 280 280 279 278 278 277 278 278 277 278 278 277 277 276 276 276 276 276 276 275 274 274 274 274 279 283 284 284 284 281 271 271 271 271 271 272 273 273 274 273 273
280 280 280 279 278 278 278 278 277 277 277 277 276 276 275 276 276 275 275 275 275 274 274 273 273 278 283 284 284 284 278 271 271 272 272 272 272 273 273 272 273 275
278 278 279 279 278 278 278 277 277 277 277 276 276 276 275 275 275 274 273 273 274 274 276 274 273 277 283 284 284 284 278 273 272 272 272 272 272 272 272 272 272 275
278 279 279 279 278 277 277 277 276 275 274 275 274 275 274 274 274 273 273 273 273 273 274 274 272 274 280 284 284 284 280 274 273 273 272 272 272 271 270 271 271 273

ECMWFNIL_sfc_thetae_018.txt.gz
Theta_e
289 289 289 289 288 288 287 286 286 286 286 286 286 286 286 286 285 284 284 284 283 283 282 282 282 282 282 281 281 280 280 280 280 279 280 280 279 279 279 279 279 279
288 287 288 287 287 287 287 287 286 286 286 286 287 286 286 286 285 285 284 283 283 283 282 282 282 282 281 281 280 280 279 279 279 280 279 279 279 279 279 278 279 278
286 286 286 286 287 286 286 285 285 286 286 286 285 285 285 285 285 284 284 284 283 282 282 282 282 282 281 281 280 280 280 279 279 279 279 279 278 279 278 278 278 278
286 286 286 286 286 285 285 284 284 284 284 284 285 285 285 285 284 284 284 284 283 282 282 281 281 281 281 280 280 280 279 279 279 278 278 278 278 278 278 278 278 278
286 286 286 286 286 285 284 284 284 284 284 285 284 284 284 284 283 283 283 283 283 282 281 281 281 281 280 280 280 279 279 279 278 278 278 277 277 278 277 277 277 277
286 287 287 287 286 285 284 284 285 284 284 283 284 284 283 283 283 283 283 283 282 282 281 281 280 280 280 280 280 279 279 278 278 277 277 277 277 277 277 277 277 276
286 286 286 286 284 284 284 284 284 284 284 284 283 283 283 283 283 283 283 283 282 282 281 280 280 280 280 279 279 279 278 278 277 277 277 277 276 276 276 276 276 276
285 284 284 283 284 284 284 284 283 283 283 282 283 283 283 283 283 283 283 282 282 281 281 280 280 280 279 279 279 279 278 278 277 277 277 276 276 276 276 276 276 276
284 285 284 284 284 285 285 285 285 284 283 283 283 282 282 283 283 282 282 282 282 281 281 280 280 280 279 279 279 279 278 277 277 277 277 276 276 276 276 276 275 275
284 285 284 284 284 285 285 285 285 285 284 283 283 283 282 282 283 282 282 282 281 281 280 280 280 280 279 279 279 279 278 277 277 277 277 277 276 276 276 275 275 275
284 284 284 284 285 285 285 286 285 285 284 283 283 282 282 282 282 282 282 281 281 281 280 280 280 280 279 279 279 279 278 278 277 277 277 277 277 277 277 276 275 275
284 284 284 285 285 285 285 286 285 285 284 283 283 282 282 282 282 282 282 281 281 281 281 280 280 280 279 279 279 278 278 278 277 277 277 277 277 276 276 276 275 275
284 284 285 285 285 285 285 285 285 285 284 283 283 283 282 282 282 282 282 282 282 282 281 280 280 280 279 279 278 278 278 277 277 277 277 277 276 276 276 275 275 275
285 285 285 285 285 285 285 284 284 284 284 284 283 282 282 282 282 282 282 282 281 281 281 281 280 279 279 279 278 278 278 277 277 277 276 276 276 275 275 275 275 274
285 285 285 285 285 284 284 284 284 284 284 283 282 282 283 282 282 282 281 281 281 281 280 280 280 279 279 279 278 278 278 277 277 276 276 275 275 274 274 274 274 274
285 284 285 285 284 284 284 284 284 284 283 283 282 282 282 282 281 281 281 281 280 280 280 280 280 280 281 282 282 278 278 277 277 276 276 275 274 273 273 273 273 273
284 284 284 284 284 285 285 284 284 283 283 282 281 281 281 280 280 280 280 281 280 280 279 279 279 280 283 284 284 284 279 277 276 276 275 275 274 273 272 272 272 272
284 283 283 283 283 283 284 284 284 283 282 281 281 280 280 280 280 280 280 280 280 280 279 279 279 282 284 285 285 285 282 278 277 276 275 275 274 273 273 272 272 271
283 283 282 282 282 282 282 282 282 282 281 281 280 281 280 279 280 280 279 280 280 279 279 279 279 283 284 285 285 285 284 280 277 276 275 274 274 273 273 272 272 271
283 282 281 281 281 281 280 280 280 280 281 281 280 279 279 279 279 279 279 279 279 279 279 279 279 282 284 285 285 286 285 282 276 276 275 274 273 273 273 272 271 271
282 281 281 280 280 279 278 278 279 279 280 280 279 279 279 279 279 279 279 279 279 279 279 279 279 282 284 285 286 286 286 283 276 275 274 274 273 273 273 272 272 272
282 281 281 281 280 279 277 278 278 278 279 279 279 279 279 279 279 279 279 279 279 279 278 278 278 283 284 285 286 286 286 280 276 275 274 273 272 273 272 272 272 272
282 281 280 280 280 279 278 278 279 278 278 277 277 278 279 278 278 279 279 279 278 278 278 278 277 281 284 285 285 286 285 277 275 274 273 272 272 272 272 273 273 273
282 281 280 280 279 279 279 279 278 278 278 277 277 277 277 277 278 278 278 278 277 277 277 277 276 279 284 285 286 286 283 275 274 273 272 272 272 272 273 273 273 275
282 281 281 280 279 279 278 277 277 277 277 276 276 277 277 277 276 277 276 277 277 277 279 278 276 278 283 284 285 286 282 274 274 273 272 271 271 271 273 273 273 275
282 281 281 280 280 279 278 277 277 275 275 275 275 276 276 276 276 276 276 276 276 276 276 277 276 276 281 285 285 286 283 275 274 273 271 271 272 272 272 272 273 274

ECMWFNIL_sfc_thetae_021.txt.gz
Theta_e
291 291 292 292 292 293 291 290 291 291 291 291 290 290 290 290 290 289 289 289 289 289 288 288 287 287 286 286 286 286 285 286 286 286 285 285 285 285 284 285 285 285
289 289 290 290 290 291 290 290 290 290 290 290 291 291 291 290 290 289 289 289 288 288 288 287 287 287 286 285 285 285 284 284 284 285 284 284 285 284 284 285 285 285
288 288 289 289 289 289 289 289 289 289 289 289 290 290 290 290 289 289 289 288 288 288 287 287 286 286 286 286 285 284 284 284 284 284 284 284 284 284 284 284 284 284
288 288 288 288 288 288 288 288 288 288 288 288 288 289 289 289 289 288 288 287 287 287 287 286 286 286 285 285 284 284 284 284 284 284 283 284 283 283 284 283 284 283
287 288 288 288 288 288 287 287 287 287 287 288 288 288 288 288 288 287 287 287 287 286 286 285 285 285 285 284 284 283 283 283 283 283 283 283 283 283 283 283 282 282
287 287 287 288 288 288 287 287 287 286 286 286 287 287 287 287 287 287 286 286 286 286 285 285 284 284 284 284 283 283 283 283 282 282 282 282 282 282 282 282 282 281
286 286 287 287 287 287 286 286 286 287 286 287 287 286 286 286 286 286 286 286 286 286 285 284 284 284 284 283 283 283 283 283 282 282 282 282 282 281 281 281 282 281
286 286 286 286 286 286 286 286 286 286 286 286 285 286 286 286 286 286 286 286 285 285 285 285 284 284 283 283 283 282 282 282 282 281 281 282 281 280 280 281 281 281
285 285 285 285 286 286 286 286 287 286 286 286 286 286 286 286 286 286 286 285 285 285 285 284 284 283 283 283 283 282 282 282 282 281 281 281 280 280 280 280 280 280
285 285 285 285 285 286 286 286 286 286 286 285 286 286 285 285 285 286 285 285 285 285 285 284 284 283 283 283 283 282 282 282 281 281 281 281 280 280 280 280 280 280
286 286 285 285 285 285 285 286 286 286 286 285 285 285 285 285 285 285 285 285 284 285 284 284 284 283 283 283 283 283 283 282 281 281 281 281 281 281 281 280 280 280
286 286 286 286 286 286 286 286 286 286 286 286 285 285 285 285 284 284 285 285 285 285 285 284 284 284 283 283 282 283 283 282 282 281 281 281 281 281 281 280 280 280
286 286 286 286 286 286 286 286 286 286 286 286 286 285 285 284 284 284 285 285 285 285 285 284 284 284 283 283 283 282 282 282 282 281 281 281 281 281 280 280 280 280
285 286 285 285 286 286 286 286 286 286 286 286 286 285 285 284 284 284 284 284 285 285 285 285 284 284 284 283 283 282 282 282 282 281 281 281 281 281 280 280 280 280
285 285 285 285 285 285 285 285 285 286 286 286 286 286 286 285 285 285 284 284 284 284 284 284 284 284 284 283 283 282 282 282 282 281 281 280 280 280 280 280 280 280
285 284 285 285 285 285 285 285 285 285 285 285 285 285 285 285 285 284 284 284 283 283 283 283 283 284 284 285 285 283 282 282 282 281 281 280 280 279 279 279 279 279
284 284 284 284 284 284 285 284 284 284 284 284 284 284 284 284 284 284 284 284 284 283 283 283 283 284 285 287 287 286 283 282 281 281 281 280 280 279 279 278 278 278
284 284 284 284 284 284 284 284 283 283 283 283 283 283 283 283 283 283 284 283 283 283 283 283 283 285 286 287 287 287 286 282 282 281 280 280 280 279 279 278 277 277
284 283 283 283 284 284 283 283 282 282 282 282 282 283 283 283 283 283 283 283 283 283 283 283 283 285 286 287 287 287 287 284 282 281 280 280 280 279 279 278 277 276
283 283 283 283 283 283 283 282 282 282 282 282 282 282 282 282 282 282 282 282 283 282 283 283 283 285 286 287 287 287 287 286 282 281 280 280 279 279 278 278 277 276
282 283 283 283 282 282 282 281 282 282 282 282 282 282 282 282 282 282 282 282 282 282 282 282 283 285 286 286 287 287 288 287 283 281 280 280 279 279 278 277 277 276
281 282 283 282 282 281 281 281 281 282 282 282 281 281 281 281 281 281 281 281 281 281 281 281 282 285 285 286 287 287 288 286 283 281 280 279 279 278 278 277 277 275
280 282 281 281 280 280 280 280 280 281 281 282 280 280 280 280 280 280 280 280 280 280 280 280 281 283 285 286 286 287 287 285 283 281 280 278 278 278 277 276 276 275
279 281 280 279 278 278 278 279 279 280 281 281 280 279 279 279 279 279 279 279 279 279 280 280 280 282 284 285 286 287 286 284 283 281 279 278 277 277 277 275 275 277
278 279 278 277 276 276 276 276 277 279 280 280 279 279 279 279 278 278 278 278 278 279 281 280 280 281 283 284 285 286 286 284 283 280 278 277 276 275 275 275 275 276
277 276 275 274 273 273 274 275 277 278 279 279 279 279 278 278 278 278 277 277 278 278 278 279 279 279 281 284 285 286 287 284 282 280 278 276 275 274 273 274 274 274

ECMWFNIL_sfc_thetae_024.txt.gz
Theta_e
296 297 297 297 298 299 298 298 298 298 298 298 297 297 297 297 297 296 296 296 296 295 295 295 295 295 294 294 294 293 293 293 292 293 293 292 292 293 293 294 294 293
295 295 295 296 296 297 297 297 297 297 297 298 298 298 298 297 297 296 295 295 295 295 295 295 295 294 294 293 293 292 291 292 292 293 292 292 292 292 293 293 293 294
294 294 294 294 294 295 296 296 296 296 296 297 298 297 298 298 297 296 296 295 295 294 295 295 294 294 293 293 292 291 290 290 290 291 291 291 291 291 292 292 292 293
293 293 293 293 294 294 295 294 295 295 295 295 295 296 297 297 296 296 295 294 294 294 294 294 294 293 293 292 292 290 290 290 290 290 290 290 290 290 290 291 291 291
292 292 293 292 293 293 293 293 293 294 294 295 295 296 295 295 295 295 294 294 294 293 293 293 293 292 292 292 291 290 289 289 289 289 289 288 289 289 289 289 289 289
292 292 292 292 292 292 292 292 293 293 293 293 294 294 294 294 294 294 294 293 293 293 293 292 292 292 291 291 290 290 289 289 289 288 288 288 288 289 289 288 288 288
291 291 291 291 291 291 291 291 292 292 292 293 293 293 293 293 293 293 293 293 292 292 292 291 291 291 290 290 289 289 289 289 289 288 287 287 288 288 288 287 287 287
290 290 291 291 290 291 290 290 291 291 292 292 291 292 292 292 292 292 292 292 292 292 291 291 291 290 290 289 289 288 288 289 288 287 287 287 287 287 287 287 287 287
289 289 289 289 289 290 290 290 290 290 291 290 291 291 291 291 291 291 292 292 291 291 291 290 290 290 289 289 288 288 288 287 288 287 287 286 286 286 287 287 286 286
288 288 288 288 288 289 289 289 289 290 290 290 290 290 290 291 291 291 291 290 290 290 290 290 289 289 289 288 288 288 287 287 287 287 286 286 286 286 286 286 285 285
288 288 287 287 287 288 288 288 289 289 289 289 289 289 290 290 290 290 290 290 289 289 289 289 289 289 288 288 288 288 287 287 287 286 286 286 286 286 286 286 285 285
287 287 287 287 287 287 288 288 288 288 288 288 289 288 288 289 288 289 289 289 289 289 289 289 289 288 288 288 287 287 287 287 287 286 286 286 286 286 286 286 285 285
286 286 286 286 286 286 287 287 287 287 288 287 288 287 287 287 287 287 287 288 288 288 288 289 288 288 288 287 287 287 286 286 286 286 286 286 285 285 285 285 285 285
287 286 286 286 286 286 286 286 286 286 286 287 287 288 288 288 287 287 287 287 287 287 287 288 288 288 288 288 287 287 286 285 286 286 286 285 285 285 285 285 285 285
287 287 287 287 287 286 286 286 285 285 285 285 286 286 287 287 288 287 287 287 286 286 286 287 287 287 288 287 286 286 286 285 285 285 285 285 285 285 285 285 285 285
286 286 286 286 286 286 286 286 285 285 285 285 285 286 286 286 286 287 287 287 287 286 286 286 286 287 287 287 288 286 286 286 285 285 285 285 285 284 284 284 285 285
285 285 285 285 286 286 286 285 285 285 285 285 285 285 285 286 286 286 286 286 286 287 287 286 286 286 287 289 289 289 287 286 285 285 285 285 285 284 284 284 284 285
283 283 283 283 284 285 285 285 284 284 284 284 284 284 285 285 285 285 286 286 286 286 286 286 287 287 288 288 289 289 288 286 285 285 285 285 285 284 284 284 284 284
282 282 281 281 283 284 284 284 283 283 283 283 283 284 284 284 285 285 285 285 285 285 285 286 286 287 288 289 289 289 289 288 286 285 285 285 285 285 284 283 283 283
281 280 280 280 282 283 283 282 282 281 282 282 282 283 283 284 284 284 284 285 285 285 285 285 285 286 288 288 289 289 289 289 286 285 285 285 285 285 284 284 283 282
280 279 278 279 280 282 281 280 280 280 280 280 280 281 282 283 283 283 284 284 284 284 284 284 285 286 287 287 288 288 289 289 287 286 285 285 285 284 284 283 283 283
279 277 277 277 278 280 280 279 278 278 277 278 278 279 281 283 283 283 283 283 284 284 284 283 284 286 286 286 287 288 288 287 286 286 285 285 285 285 283 283 283 283
278 276 276 276 277 278 278 277 276 275 276 276 276 278 279 280 281 282 282 283 283 283 283 283 283 285 285 286 286 287 287 286 286 285 285 285 285 285 284 283 283 282
277 275 275 275 276 276 275 275 274 274 274 275 275 276 277 279 280 281 281 282 282 281 282 282 283 284 285 285 286 286 286 285 285 285 285 285 285 285 284 283 283 282
275 275 274 274 274 274 273 272 272 272 273 274 274 276 276 278 279 280 280 281 282 281 282 282 282 283 284 285 285 285 285 285 285 284 284 284 285 284 284 283 282 282
274 273 273 273 273 272 272 271 271 271 272 272 273 274 274 275 276 278 278 279 280 280 281 281 282 282 283 284 284 285 285 284 284 284 283 284 284 284 282 281 281 281

ECMWFNIL_sfc_thetae_027.txt.gz
Theta_e
295 295 295 295 295 296 296 296 297 297 298 298 298 299 299 300 301 300 299 299 299 298 298 298 298 298 298 297 297 296 295 295 295 295 294 294 293 293 293 294 295 295
294 294 294 294 294 295 295 295 296 296 296 296 297 298 299 299 300 300 299 299 298 298 298 298 298 297 297 296 296 295 294 294 294 295 293 293 293 293 293 293 294 294
293 293 293 293 293 293 293 294 295 295 295 295 296 296 297 298 299 299 299 299 298 297 297 297 297 297 296 295 295 294 293 293 292 293 293 293 293 292 292 293 293 293
292 292 293 293 293 292 293 293 293 293 294 294 294 296 296 297 297 297 298 297 297 296 296 296 296 296 295 295 294 294 293 293 293 293 292 292 292 292 292 292 292 292
291 291 292 292 292 293 293 292 292 292 292 293 293 294 294 294 295 295 295 296 296 295 295 295 295 295 295 294 294 293 293 292 292 292 291 291 291 291 291 291 290 290
290 291 291 291 291 291 291 291 291 291 291 291 292 292 292 292 293 293 294 294 294 295 294 294 294 294 294 294 293 292 292 291 291 291 290 290 290 290 291 290 290 289
289 289 289 290 290 291 289 290 290 291 291 291 291 291 292 291 291 292 292 292 293 293 293 293 293 293 293 293 292 291 291 291 291 290 289 289 289 289 289 289 289 289
288 289 289 289 288 289 289 289 289 290 290 290 290 291 291 291 291 291 292 292 292 292 292 292 292 292 292 292 291 291 290 291 291 290 289 289 289 288 289 289 289 288
288 287 287 287 287 288 287 288 288 289 289 289 289 290 291 291 290 290 290 290 290 291 291 291 292 292 292 291 291 290 290 290 290 289 289 288 288 288 288 288 288 288
287 287 286 285 286 287 286 287 287 288 288 288 289 289 288 289 290 290 290 290 289 289 290 290 290 291 291 291 290 289 289 289 289 289 289 288 288 288 288 288 287 287
287 286 286 286 286 286 286 287 286 286 287 287 287 287 288 288 289 289 289 289 289 289 289 289 289 290 290 290 290 289 289 289 289 289 288 288 288 288 288 288 287 287
287 287 286 285 285 286 287 287 286 286 286 286 286 286 287 287 288 288 288 288 288 288 288 288 289 289 289 289 289 289 289 289 289 288 288 288 288 288 288 288 288 287
286 286 286 286 286 285 286 287 287 287 286 285 285 285 285 286 286 286 287 287 287 287 287 287 287 288 288 289 289 289 289 288 288 288 288 288 287 287 287 287 287 287
285 286 286 286 286 286 286 286 286 286 286 286 286 285 285 285 285 285 285 286 286 287 287 287 287 286 287 287 288 288 288 288 287 287 287 287 287 287 287 287 287 287
285 285 286 286 285 285 285 286 286 286 285 285 285 285 286 285 285 285 284 285 285 286 286 287 286 286 286 286 286 286 287 287 287 287 286 286 286 286 287 287 287 287
284 284 284 284 284 284 284 285 285 286 285 284 284 284 285 285 285 285 284 284 284 284 285 286 286 287 287 288 288 286 286 286 286 286 286 286 286 286 286 286 286 286
283 283 283 283 283 283 282 283 285 285 284 284 284 284 283 283 284 284 285 285 285 284 284 285 285 286 288 290 290 290 288 286 286 286 286 286 286 285 285 285 286 286
282 282 282 282 282 281 281 282 283 284 283 283 282 282 282 282 282 282 283 284 284 285 285 285 285 286 288 289 290 290 289 287 286 286 285 285 285 285 285 285 285 285
282 281 281 281 281 281 280 280 281 282 282 281 281 281 281 280 280 281 282 283 283 284 284 284 284 286 287 288 288 289 289 289 287 286 286 285 285 285 285 285 285 285
281 281 280 280 281 280 279 279 279 280 281 281 280 279 279 279 279 279 280 282 283 283 283 283 284 285 286 287 287 288 288 288 286 286 286 286 286 285 285 285 285 285
280 280 280 280 280 279 278 277 278 278 279 279 278 278 277 277 277 277 279 280 281 282 282 282 283 285 286 286 287 287 288 288 286 286 286 286 286 286 286 285 285 285
280 279 279 279 279 278 277 276 277 277 277 278 277 276 276 276 276 277 278 278 279 280 281 281 282 284 285 286 287 287 287 286 285 285 285 285 285 286 286 286 286 285
279 278 278 278 278 277 276 275 275 275 276 277 275 274 274 274 274 275 276 277 278 279 279 280 281 283 285 285 286 286 286 284 284 284 284 284 285 285 286 286 286 285
278 278 277 277 277 275 275 275 275 275 275 275 273 272 272 272 273 274 275 276 277 277 278 279 279 281 284 284 285 285 285 283 283 283 283 284 284 285 286 286 286 285
277 277 276 276 275 274 274 273 273 273 274 273 272 272 271 272 272 272 273 274 274 275 277 277 278 280 283 283 284 284 284 283 283 282 282 282 283 283 285 285 285 286
275 274 274 274 273 273 273 272 273 272 272 271 271 271 270 270 271 271 270 271 272 273 274 275 275 276 279 282 283 284 285 283 283 282 281 281 282 283 283 284 285 285

ECMWFNIL_sfc_thetae_030.txt.gz
Theta_e
289 290 290 290 290 290 290 290 290 291 291 291 291 291 292 293 293 294 294 293 293 293 292 292 292 292 293 292 291 291 291 290 290 289 289 289 289 289 289 288 288 288
287 288 288 288 288 289 289 289 290 290 290 290 291 291 291 292 292 293 293 293 292 292 291 292 291 291 291 290 289 288 289 288 288 290 289 287 288 288 288 288 287 288
287 286 286 286 287 286 287 288 288 288 288 289 289 290 291 292 292 292 292 292 292 292 291 291 291 290 289 287 287 287 288 287 287 286 286 287 287 287 287 287 287 287
286 287 287 286 287 286 286 286 286 287 287 287 287 288 289 290 290 289 289 290 290 289 289 287 287 287 286 287 286 287 287 287 287 286 286 286 286 286 287 286 287 287
285 286 286 286 286 286 285 285 285 285 284 285 285 286 286 287 286 286 287 287 287 287 288 288 287 287 287 287 286 287 286 287 286 286 286 286 286 286 286 286 286 286
284 285 285 285 285 285 284 284 285 285 285 285 285 285 285 285 285 285 286 286 286 286 286 287 287 287 286 286 287 287 287 287 287 285 286 286 286 285 286 286 286 286
283 283 283 284 283 284 284 284 284 284 284 284 285 285 285 285 285 285 285 285 285 285 286 286 286 286 286 285 285 286 286 286 286 285 285 285 285 285 285 285 285 286
284 284 284 284 283 284 283 283 283 283 284 284 284 284 284 284 284 285 285 285 285 285 284 284 285 286 286 286 286 286 285 287 286 285 285 285 284 284 284 285 285 285
281 281 283 283 283 283 282 283 283 283 283 282 282 283 284 284 284 284 284 284 284 284 284 284 284 285 286 285 285 285 285 285 286 285 285 285 284 284 284 284 284 284
280 281 280 280 280 281 282 282 282 282 282 282 282 282 283 283 284 284 284 284 284 284 284 284 284 284 285 285 285 284 284 285 285 285 285 285 285 285 284 284 284 284
280 280 280 279 279 279 279 280 281 281 281 280 280 280 281 281 282 282 282 282 283 283 284 284 284 284 284 284 284 284 284 284 284 284 284 284 284 285 286 285 284 284
279 279 279 279 280 280 279 280 281 280 280 280 280 280 280 280 280 281 281 281 281 281 282 283 284 284 284 284 284 284 284 284 284 284 284 284 284 284 284 284 285 285
278 279 279 279 279 280 279 279 280 280 280 280 280 279 279 279 280 279 280 280 280 281 281 282 282 283 284 284 284 284 284 284 285 285 285 285 285 285 284 284 285 285
279 279 279 280 280 280 279 278 278 279 279 280 280 280 279 279 279 280 280 279 280 280 280 281 281 282 282 283 283 283 284 284 284 284 284 285 285 285 285 285 285 285
278 278 278 279 279 279 279 279 279 278 279 279 280 280 281 280 279 279 279 279 279 279 280 280 281 281 282 282 282 282 283 283 284 284 284 284 284 285 285 285 285 285
278 278 278 278 278 278 278 278 278 278 278 278 279 279 279 279 279 279 278 278 278 278 279 280 281 282 284 286 287 285 283 283 283 283 284 284 284 284 284 285 285 285
278 278 278 278 278 278 278 278 278 278 277 277 278 278 278 278 278 278 277 277 277 277 278 279 280 281 285 287 288 288 286 284 283 283 283 283 283 283 283 284 284 285
278 278 278 278 278 277 278 278 278 277 277 277 277 277 277 278 277 277 277 277 277 277 277 277 279 283 285 286 286 287 287 284 283 283 283 283 283 283 284 284 284 284
278 277 277 277 277 277 277 278 277 277 276 276 276 276 277 277 277 277 276 276 276 275 275 277 277 282 284 285 285 286 286 286 283 282 282 282 283 283 283 283 284 284
278 277 277 277 277 277 277 277 276 276 276 276 275 275 275 276 276 276 276 275 275 275 275 276 276 280 282 284 284 285 286 286 283 282 282 282 282 282 283 283 283 283
277 277 277 277 277 277 276 276 276 276 275 275 275 274 274 274 274 274 274 274 274 274 274 274 275 279 281 282 283 285 286 286 283 282 282 282 282 282 282 283 283 283
276 276 276 275 275 275 275 275 275 275 275 275 274 274 274 274 274 274 273 273 273 273 273 273 274 279 280 281 282 283 284 282 282 281 281 281 281 281 281 282 283 283
275 274 273 274 274 274 273 273 273 273 273 274 273 273 272 272 272 272 273 272 272 272 271 272 272 276 278 279 280 282 282 280 280 280 280 280 280 280 280 281 282 282
272 272 272 272 272 271 271 271 271 272 272 272 271 271 271 271 271 271 271 271 271 271 271 271 271 274 277 278 279 280 280 277 278 278 278 279 279 279 280 280 281 283
270 270 270 270 269 269 269 268 268 268 269 270 269 270 269 270 270 270 270 270 270 270 272 271 270 272 276 277 278 278 277 276 276 276 276 277 278 278 279 279 280 282
268 268 268 267 265 265 265 265 266 266 267 267 267 268 267 268 268 268 268 268 269 269 269 269 269 269 271 275 276 277 278 275 274 273 273 274 276 277 278 278 279 280

ECMWFNIL_sfc_thetae_033.txt.gz
Theta_e
286 286 286 286 286 287 286 286 286 286 286 286 286 287 287 288 289 289 290 290 290 291 291 291 291 291 292 290 290 290 290 290 289 288 287 287 287 287 288 287 287 287
284 285 285 285 286 286 285 285 285 285 285 285 285 286 287 287 287 288 288 288 288 289 289 290 290 290 290 290 289 288 288 288 288 289 287 286 286 286 286 286 286 286
283 282 283 283 284 284 284 284 284 284 284 285 285 285 286 286 286 286 286 286 287 287 287 288 288 288 287 287 287 287 288 287 287 287 286 286 286 285 285 285 285 285
282 282 282 282 283 282 282 282 283 283 283 284 284 285 286 286 286 285 285 285 285 285 285 285 286 287 287 287 287 287 287 286 287 286 286 286 285 285 285 285 285 285
281 282 281 281 281 281 281 281 281 281 281 282 282 283 283 284 284 284 285 285 285 285 285 285 285 285 285 286 286 286 287 287 286 286 285 286 286 285 286 285 284 284
281 281 281 282 282 282 282 282 282 282 282 281 281 281 281 281 282 283 284 284 284 285 285 285 285 285 285 285 285 285 285 286 286 286 285 285 286 286 286 285 285 284
283 283 283 283 282 282 282 282 282 283 283 283 283 282 282 282 281 281 281 282 283 283 283 284 284 284 285 285 285 285 285 285 285 285 285 285 285 285 284 284 284 284
282 282 282 281 280 280 280 280 280 281 281 282 282 283 283 282 282 282 282 281 281 281 282 283 283 283 284 284 284 284 285 286 286 285 284 284 284 284 284 285 284 284
279 280 280 280 279 280 280 280 280 280 281 280 281 281 282 282 282 282 281 282 282 282 281 282 282 282 283 283 283 283 283 284 285 284 284 284 284 284 284 284 283 283
277 278 278 278 278 278 278 279 279 280 280 280 280 279 280 281 281 280 280 280 281 281 281 281 281 281 282 282 282 283 283 283 283 283 283 284 284 284 284 283 283 283
276 277 277 277 277 278 278 278 278 278 279 279 279 279 279 279 280 279 280 279 280 279 280 280 280 281 281 281 282 282 282 282 282 282 282 283 283 284 285 284 283 283
277 276 277 277 277 277 278 278 278 278 278 278 278 279 279 279 279 279 279 279 279 279 279 279 280 280 280 280 281 281 281 281 282 282 282 282 282 283 283 283 283 283
278 278 278 278 278 278 278 278 278 278 278 278 278 278 278 278 278 278 278 278 278 279 278 278 278 279 279 280 280 280 281 281 281 281 281 281 282 282 282 282 283 283
278 278 278 279 279 278 278 278 278 277 277 277 277 277 277 278 278 278 278 278 278 278 278 278 278 278 278 278 279 280 280 280 280 281 281 281 281 281 282 282 282 283
278 278 279 278 278 278 278 279 278 278 278 277 277 277 278 277 277 277 277 278 278 277 277 277 278 278 278 278 278 279 279 279 280 280 280 280 281 281 282 282 282 283
278 278 278 278 278 278 278 278 278 278 278 278 278 278 277 277 277 277 277 277 277 277 277 277 277 278 280 282 283 281 280 280 281 281 280 280 280 280 281 281 282 282
277 278 278 277 278 278 278 278 278 278 277 277 277 277 277 277 277 276 276 276 276 276 276 276 277 277 280 282 283 283 281 280 281 281 281 281 280 280 280 281 281 281
277 277 277 277 277 277 277 277 277 276 276 276 276 276 277 277 276 276 276 276 276 276 276 276 276 279 281 282 282 283 282 280 280 280 281 280 280 280 280 280 280 281
276 276 276 276 276 275 275 275 275 275 275 275 275 276 276 275 275 276 275 276 275 275 275 275 275 279 280 281 281 282 282 281 279 279 279 279 280 280 280 280 280 280
275 274 274 274 274 273 273 273 272 272 273 274 274 274 274 274 274 274 274 274 274 274 274 274 274 277 279 280 280 281 282 281 278 278 278 279 279 280 280 280 280 280
272 272 271 271 271 271 270 270 271 271 272 272 272 272 272 272 272 272 272 272 273 273 273 273 273 277 278 279 280 281 281 281 277 277 277 277 278 278 279 280 280 280
270 269 269 268 268 268 268 268 269 269 268 269 269 269 269 270 270 270 270 270 270 271 270 270 271 276 277 278 279 279 280 276 275 275 275 275 275 276 277 279 279 280
268 267 266 266 266 266 266 266 266 265 265 266 265 266 266 266 266 267 268 268 268 268 268 269 269 272 276 277 277 278 277 274 274 273 273 273 273 274 275 276 277 277
265 265 264 264 264 263 263 263 263 263 263 264 263 263 263 264 264 265 265 266 266 266 267 267 267 270 274 275 276 276 275 272 272 271 271 271 272 273 273 274 275 278
264 263 263 262 262 262 262 261 261 261 262 262 262 262 262 263 263 262 263 263 264 265 267 266 265 267 271 272 273 274 272 270 270 270 270 271 271 271 272 273 273 275
262 262 262 261 261 261 261 261 261 261 261 261 261 261 261 261 261 261 261 261 262 263 263 264 264 264 266 271 272 273 274 270 270 269 269 270 271 271 271 271 272 272

ECMWFNIL_sfc_thetae_036.txt.gz
Theta_e
283 283 283 282 282 283 283 282 283 282 282 283 283 284 284 284 284 284 285 285 285 285 286 286 286 286 287 287 287 287 287 287 287 287 286 285 285 285 286 286 286 286
281 282 282 282 281 282 282 282 282 282 282 282 283 284 284 284 284 284 284 284 284 284 285 285 284 285 285 285 285 285 286 286 286 288 286 286 286 284 284 284 285 285
280 280 280 280 280 279 280 280 280 280 281 281 281 282 283 284 284 284 284 284 284 284 284 284 284 284 283 284 284 284 284 285 285 286 285 285 286 285 285 284 284 284
279 279 279 279 280 279 280 279 279 280 279 280 280 280 281 282 282 282 283 283 282 283 283 283 283 283 283 284 284 283 283 284 284 284 284 285 285 285 285 285 285 284
281 282 282 281 281 280 279 280 280 279 279 279 280 280 280 280 280 280 280 280 281 281 281 281 282 282 283 283 283 283 283 284 284 284 284 284 285 285 285 285 285 284
282 282 282 281 280 280 280 280 280 280 280 280 280 281 280 280 280 280 280 279 280 280 280 280 280 280 281 281 282 282 282 283 283 284 283 283 283 284 285 285 284 284
280 279 279 279 278 279 279 279 280 280 280 280 280 280 280 280 280 280 280 280 280 280 280 280 280 281 281 280 279 280 281 281 282 282 282 283 283 284 284 284 284 284
278 278 279 278 277 277 278 278 279 279 279 279 279 280 280 280 280 280 280 280 279 280 279 279 280 280 280 279 279 279 279 281 282 281 281 281 282 282 282 284 284 283
276 277 277 277 277 278 277 278 278 278 279 279 279 279 279 279 280 280 280 280 280 280 280 279 279 279 279 278 278 278 279 279 280 280 280 280 281 281 281 282 282 283
276 276 276 276 276 277 276 277 277 277 278 278 278 278 278 279 278 279 279 279 279 279 279 279 279 279 279 279 278 278 278 278 279 279 279 280 280 281 281 281 281 281
275 275 275 276 276 276 276 276 276 277 277 277 277 278 278 278 278 277 277 278 278 278 278 278 279 279 279 279 279 278 278 278 278 278 278 278 279 280 281 281 281 281
276 276 276 276 276 276 276 276 277 276 276 276 276 277 277 277 277 277 277 277 278 278 278 278 278 278 278 278 278 278 278 278 278 278 278 278 278 279 279 280 281 281
276 276 276 276 276 277 277 277 277 276 276 276 276 276 276 276 276 276 277 277 277 277 277 277 277 278 278 277 277 277 277 277 277 278 278 278 278 278 279 279 280 280
276 276 276 277 277 277 277 277 277 277 277 277 277 277 276 276 276 276 276 276 276 276 277 277 277 277 277 277 277 276 276 276 277 277 277 277 278 278 279 279 279 280
276 276 276 276 276 276 276 276 276 276 277 276 276 276 277 276 276 276 276 276 276 276 276 276 276 276 276 276 276 276 277 276 277 277 277 277 278 278 279 279 280 280
275 275 275 275 275 275 275 275 275 275 275 274 274 274 274 275 274 275 275 275 275 275 276 276 276 276 278 280 281 279 278 278 278 277 277 277 277 277 278 278 279 279
274 274 274 274 274 274 273 273 273 273 272 272 272 272 272 273 273 273 274 274 274 274 274 275 275 276 279 280 281 282 279 278 277 277 277 277 277 276 276 277 278 279
273 273 272 272 272 271 271 271 270 270 270 270 270 270 271 272 271 272 272 272 272 272 272 273 273 276 279 279 280 280 280 277 277 277 277 276 276 276 276 276 277 277
271 270 270 269 269 269 269 268 268 268 267 268 268 269 269 269 269 269 269 269 270 269 270 270 271 274 276 277 278 278 279 278 276 276 276 276 276 276 276 275 275 276
269 268 267 267 267 267 266 266 266 266 266 267 267 267 266 266 266 266 266 267 267 267 267 268 268 271 274 275 276 277 277 277 274 274 274 274 274 274 274 274 274 274
267 266 266 265 265 265 264 264 264 264 265 265 265 264 264 264 264 264 264 265 265 265 265 265 265 270 272 273 274 275 276 276 273 273 273 273 274 274 274 274 274 274
265 264 264 263 263 263 263 263 263 263 263 263 263 263 263 263 263 263 263 263 263 263 263 262 263 269 271 272 273 274 275 271 270 269 269 269 270 271 271 272 273 273
264 263 262 262 262 261 261 261 262 262 262 262 261 261 261 261 261 261 262 262 262 262 261 262 262 266 270 271 272 273 272 268 268 268 268 268 268 269 269 270 270 271
262 261 261 261 260 260 260 261 261 261 261 261 260 260 260 260 260 260 261 261 261 261 261 261 261 265 269 270 271 272 271 268 268 267 267 268 268 269 269 270 270 273
261 261 261 260 260 260 260 260 260 260 260 261 260 260 260 260 260 260 260 260 260 260 263 262 261 263 268 269 270 271 269 268 268 267 267 267 267 267 268 268 269 270
260 260 260 259 259 259 259 259 260 259 259 259 259 259 259 259 259 259 258 259 260 260 260 261 261 261 263 269 270 271 272 268 268 267 266 266 267 267 267 267 268 268

ECMWFNIL_sfc_thetae_039.txt.gz
Theta_e
281 281 281 281 281 282 281 280 280 280 281 280 280 280 281 281 281 281 281 282 282 281 282 282 282 282 283 283 284 284 284 284 284 285 285 285 285 285 286 285 285 285
280 281 281 280 280 281 280 280 279 280 280 280 280 280 280 281 281 280 280 280 281 280 281 281 281 281 281 281 282 282 282 283 283 285 284 284 284 285 285 285 285 285
279 279 279 279 279 279 279 279 279 279 279 279 279 279 280 280 280 279 279 280 279 280 280 280 280 280 280 280 280 280 280 281 281 283 283 283 284 284 284 284 284 284
279 279 278 278 279 278 279 278 278 278 278 279 279 279 279 280 279 278 278 279 278 279 279 278 279 279 279 279 279 279 279 279 280 280 281 282 283 284 284 284 284 284
279 279 279 279 278 278 278 278 278 279 279 279 279 279 279 278 278 278 278 277 277 278 278 278 278 278 278 278 278 279 279 279 279 279 279 279 280 281 282 283 283 283
278 278 278 278 278 277 278 277 278 278 278 278 279 279 279 279 279 279 279 279 279 278 278 277 277 277 278 277 277 277 278 278 278 279 279 279 279 280 281 281 281 281
278 277 277 277 277 277 277 277 278 278 278 278 278 278 278 278 278 278 278 278 278 279 278 278 278 278 278 277 277 277 277 277 277 278 278 278 279 279 280 280 280 279
277 276 277 276 277 277 277 277 277 277 277 277 277 277 277 277 277 278 278 278 278 278 278 278 277 278 278 277 277 277 277 278 278 277 276 277 277 277 278 279 279 279
275 276 276 275 276 276 276 276 276 276 276 276 276 276 276 276 276 276 276 276 277 277 277 277 277 277 277 277 277 277 276 277 277 276 276 276 276 276 277 277 278 278
275 275 275 275 275 275 275 275 276 276 276 276 276 276 276 277 276 276 276 276 276 276 276 276 276 276 276 276 276 276 276 276 276 276 276 276 276 276 276 276 276 277
275 274 274 275 275 275 275 275 275 275 275 275 275 275 276 275 276 275 276 275 275 275 275 275 276 276 276 276 276 276 276 276 276 276 276 276 276 276 277 276 276 276
275 275 275 274 275 275 275 275 275 275 275 275 275 275 275 275 275 275 275 274 274 274 274 274 275 275 275 275 276 276 276 276 276 276 276 276 276 276 276 276 276 276
274 274 274 274 274 274 274 274 274 274 274 274 274 274 273 273 273 273 273 273 273 274 274 274 274 275 275 275 275 275 275 275 275 275 275 276 276 276 276 277 277 277
274 274 274 274 274 274 273 273 273 273 273 273 272 272 272 272 272 272 272 272 273 273 273 274 274 274 274 274 274 275 275 275 275 276 276 276 276 276 277 277 277 277
273 274 273 273 273 272 272 272 271 271 271 271 270 270 271 271 271 271 271 271 272 272 272 272 272 272 273 273 273 274 275 275 275 275 275 275 275 276 276 276 276 277
273 272 272 272 271 271 270 270 270 269 269 268 268 268 268 269 269 270 270 269 269 269 269 269 270 270 272 274 276 274 273 273 273 273 274 274 274 274 275 275 276 276
271 271 270 269 270 269 268 267 268 267 266 266 266 266 267 267 267 267 267 267 267 267 266 267 268 268 272 274 275 276 274 272 272 273 273 273 273 273 273 274 274 275
270 269 268 267 267 266 266 265 265 264 264 265 265 265 266 265 265 265 265 265 265 265 265 265 265 269 271 273 274 275 275 272 272 271 271 272 272 272 272 273 273 274
267 266 265 265 265 264 264 264 263 263 263 263 263 264 264 264 264 264 264 264 264 264 263 264 264 267 270 272 273 274 275 274 271 271 271 271 271 271 271 271 272 272
266 263 263 263 263 263 263 262 262 262 262 262 263 263 263 262 262 262 263 263 263 263 263 263 263 266 270 272 273 274 274 274 271 270 270 270 269 269 269 269 269 269
264 263 263 263 262 262 261 261 261 261 262 262 262 262 261 261 261 261 261 262 262 262 262 262 262 268 270 272 272 273 274 273 270 269 269 268 268 268 268 268 269 269
263 262 262 261 262 261 260 261 261 260 260 261 261 261 261 261 261 261 261 260 261 261 261 260 261 268 269 270 272 273 274 270 268 268 267 267 267 268 268 269 269 269
263 262 261 260 260 260 259 259 260 260 260 260 259 260 260 260 260 260 260 260 260 260 260 260 260 264 269 270 271 272 271 267 267 267 267 267 267 267 268 268 269 269
262 260 259 259 259 258 259 260 260 260 259 259 259 259 259 259 259 259 259 259 259 259 259 259 260 264 268 270 271 271 271 268 267 266 266 267 267 267 268 268 268 270
260 260 259 258 258 259 258 258 259 259 259 259 259 258 259 259 259 258 258 258 259 259 262 261 260 262 267 269 270 271 269 268 268 267 266 266 267 267 267 267 268 269
259 258 258 258 258 258 258 258 258 258 258 258 258 258 258 258 258 258 257 258 258 259 259 260 259 260 262 268 270 271 272 269 268 267 266 266 267 267 266 267 268 268

ECMWFNIL_sfc_thetae_042.txt.gz
Theta_e
281 281 280 280 281 281 280 280 280 280 280 281 280 280 281 281 281 281 281 281 281 281 281 281 281 281 281 280 280 280 280 279 279 280 280 280 280 281 282 282 282 283
280 280 281 280 280 280 279 279 279 279 279 279 279 279 280 280 280 280 280 280 280 280 280 280 280 280 279 279 279 279 279 279 278 280 279 278 279 279 279 280 281 282
278 278 279 279 279 278 278 279 279 278 278 278 278 279 279 279 279 278 278 279 279 279 279 279 279 279 279 278 278 278 278 278 278 279 279 278 278 278 278 278 279 280
278 278 278 278 278 278 278 278 278 278 277 278 277 278 278 279 277 277 277 278 277 277 278 278 277 278 277 278 277 277 277 277 277 278 278 278 278 278 278 278 278 278
278 278 278 278 277 277 277 277 277 277 277 277 277 277 277 277 277 277 277 277 277 277 277 276 276 276 276 276 276 276 276 276 276 276 276 276 277 278 278 278 278 277
277 277 278 277 277 277 277 277 276 276 276 276 277 277 276 276 276 276 276 276 276 276 276 276 276 276 276 275 275 275 275 275 276 275 275 275 276 276 278 278 277 277
277 277 276 277 276 276 276 276 276 277 276 276 276 276 276 276 276 276 276 276 275 276 275 275 275 275 275 275 275 275 275 275 275 275 275 275 275 275 275 276 276 276
276 276 276 276 276 276 275 275 275 275 275 275 275 275 275 275 275 275 275 275 275 275 275 274 274 274 274 275 274 274 274 276 275 275 274 274 275 274 275 275 275 275
276 275 275 275 275 275 274 274 274 274 275 274 274 274 274 274 274 274 274 274 273 274 273 273 274 273 274 274 274 274 274 274 275 275 274 274 274 274 274 275 274 274
275 274 274 274 274 274 273 274 274 274 274 274 274 273 273 273 273 273 273 272 272 272 272 272 273 273 273 273 274 274 274 274 274 274 274 274 274 274 274 275 274 274
274 274 274 274 273 273 273 273 273 273 273 273 272 272 272 272 272 271 271 271 271 271 272 272 272 272 272 272 273 273 273 273 274 274 274 274 274 274 276 275 275 274
274 273 274 273 273 273 273 273 273 272 272 272 271 270 271 271 270 270 271 270 271 271 271 271 271 271 271 271 271 272 272 272 272 273 273 274 274 274 275 275 275 275
273 273 273 273 273 273 272 272 271 271 270 270 270 269 269 269 269 269 270 270 270 270 270 269 269 270 270 270 270 271 271 271 272 272 272 273 273 273 274 274 274 274
273 273 272 272 272 271 271 270 270 269 269 269 268 268 268 268 268 268 268 268 269 268 268 268 268 268 269 269 269 270 271 271 271 271 271 271 272 272 272 272 273 273
273 272 272 271 271 270 269 269 268 268 267 267 267 267 267 267 267 267 266 266 266 266 266 267 267 267 268 268 269 270 271 271 271 271 271 271 271 271 272 272 272 273
271 271 270 270 269 268 267 266 266 266 266 265 265 265 265 266 265 265 265 265 265 265 265 265 266 266 268 271 273 272 272 271 271 271 271 271 271 270 271 271 272 272
269 268 268 267 267 266 264 264 265 263 262 263 262 263 263 264 264 264 264 264 264 264 264 264 265 265 269 272 274 274 273 272 271 271 271 271 270 270 270 270 271 271
268 267 266 265 265 264 263 262 262 261 261 261 261 262 263 262 263 263 263 263 263 263 263 263 264 267 270 272 273 274 274 272 272 271 271 270 270 270 270 270 269 269
266 264 263 262 262 262 261 260 260 261 260 260 260 260 261 261 262 262 262 263 263 262 262 263 263 266 270 272 273 274 274 274 271 271 270 270 269 269 268 268 268 268
264 262 262 262 261 261 261 260 259 259 259 260 260 261 261 261 260 261 261 261 262 261 261 262 262 265 270 272 272 273 274 274 271 270 269 268 268 268 267 267 267 267
264 262 261 261 261 260 259 259 259 259 260 260 259 261 260 260 260 259 260 260 260 260 261 261 261 267 270 271 272 273 274 274 270 269 268 267 268 268 268 268 268 268
262 261 261 260 261 259 258 260 259 258 259 259 259 259 258 259 259 259 259 259 260 259 259 260 261 267 269 270 272 273 274 270 269 268 267 267 267 267 268 268 268 268
263 261 260 259 259 259 257 258 259 258 258 258 258 259 259 258 258 258 259 259 259 259 259 259 259 264 268 270 271 273 271 269 268 268 267 267 267 268 268 268 268 268
262 259 260 258 258 257 257 259 258 257 257 257 258 258 258 257 258 258 258 258 258 258 258 258 259 263 268 269 270 271 271 269 268 267 267 267 267 268 268 268 269 271
260 259 259 258 257 258 257 257 256 256 257 256 257 256 257 257 257 257 257 257 258 258 261 261 259 261 266 268 270 271 270 269 269 268 267 267 267 267 268 268 269 270
259 259 259 257 258 257 256 256 256 256 256 256 256 256 256 256 257 257 256 257 257 258 258 259 259 259 261 268 270 271 272 270 269 268 267 267 267 267 267 268 269 269

ECMWFNIL_sfc_thetae_045.txt.gz
Theta_e
283 283 283 283 282 283 282 282 282 281 281 281 281 281 281 281 282 282 282 282 282 282 282 282 282 282 282 281 282 281 281 281 281 282 281 281 281 281 281 281 282 282
282 283 283 282 282 282 281 282 281 281 280 281 281 281 281 281 281 281 280 280 281 280 281 281 281 281 280 280 281 280 280 280 280 281 280 280 280 280 280 281 281 281
281 281 281 281 281 280 280 281 281 280 280 280 280 280 280 280 279 280 280 279 279 279 279 279 279 279 279 279 279 279 279 279 279 280 280 280 280 280 280 280 280 280
280 280 280 280 280 280 280 280 280 280 280 279 279 279 279 279 279 278 279 279 278 278 278 278 278 278 278 278 278 278 278 278 278 279 278 279 279 279 279 280 280 280
280 280 280 280 280 280 280 279 279 279 279 278 279 279 278 278 278 278 278 278 278 277 277 277 277 277 278 277 277 277 277 277 278 278 277 277 278 278 278 279 278 278
280 280 280 279 279 279 278 278 278 278 278 278 278 278 278 278 277 277 277 277 277 277 276 276 276 276 277 276 276 276 276 276 277 277 276 276 277 277 278 278 277 277
279 279 278 278 278 278 278 278 278 278 278 278 278 277 277 277 276 276 276 276 276 276 275 275 275 275 276 276 276 275 276 276 276 276 275 276 276 276 277 277 277 276
278 278 278 278 277 277 277 277 277 277 277 277 276 276 276 275 275 275 275 275 274 274 274 274 275 275 275 275 274 274 274 275 275 275 275 275 275 275 276 276 276 276
277 277 277 277 277 276 276 276 276 276 276 275 274 274 275 275 274 274 274 274 273 273 274 274 274 273 273 273 273 273 273 273 274 274 274 273 274 274 274 275 275 275
277 277 276 276 276 276 275 275 275 275 274 273 273 273 273 273 273 273 273 273 272 272 272 272 272 272 272 272 272 272 272 272 272 273 273 273 273 273 274 274 274 274
276 276 276 275 275 275 274 274 273 273 273 272 272 272 272 272 272 272 272 271 271 271 271 271 271 271 271 271 271 272 271 272 272 272 273 273 273 273 273 273 273 273
276 275 275 275 274 274 273 273 272 272 271 271 271 270 271 271 270 270 271 270 270 270 270 270 270 270 270 270 270 271 271 272 272 272 272 272 273 273 273 273 272 272
275 275 275 274 273 273 272 271 271 270 270 269 270 269 269 269 269 269 269 269 269 269 269 269 269 269 269 269 269 270 271 272 272 272 272 272 272 273 273 273 273 273
275 274 274 273 272 272 271 270 269 269 268 268 268 268 268 268 267 267 268 268 268 267 268 268 268 268 268 268 269 271 272 272 272 272 272 272 272 273 273 273 273 272
274 273 273 272 271 270 269 268 268 268 267 267 267 267 267 267 267 267 266 266 266 267 267 267 267 267 267 268 271 272 272 272 272 272 272 272 272 272 272 272 272 272
272 272 271 270 269 268 267 267 267 266 266 266 266 266 266 266 266 266 266 265 265 266 266 266 266 266 267 271 273 273 273 272 272 272 272 272 271 271 271 272 272 272
270 270 269 268 268 267 266 266 266 265 265 264 264 264 264 265 265 265 265 265 265 265 265 265 265 266 269 272 273 274 274 273 272 272 272 272 271 271 270 271 271 271
269 268 267 267 266 265 265 264 264 263 263 263 263 263 264 264 264 264 264 264 264 264 264 264 265 267 270 272 273 274 275 273 272 272 272 272 271 271 270 269 269 269
267 266 266 265 264 264 264 263 262 263 262 262 262 263 263 263 263 263 263 263 263 263 263 263 264 266 269 271 273 274 274 274 272 272 271 271 270 269 269 268 268 268
266 265 265 264 263 263 263 262 262 262 262 262 262 262 262 262 262 262 262 262 262 262 262 263 263 265 269 272 273 273 274 274 272 271 271 269 269 268 268 268 268 268
266 264 264 263 263 262 262 262 261 261 262 262 261 262 262 261 261 261 261 261 261 261 261 261 262 267 269 271 272 273 274 274 271 270 269 269 269 269 269 268 268 268
264 263 263 263 262 261 261 262 261 261 261 261 261 261 261 261 261 261 260 260 260 260 260 260 261 266 268 270 272 273 274 271 270 269 269 269 269 269 269 269 269 269
265 263 262 262 261 261 260 260 261 260 260 260 259 260 260 260 259 259 260 260 259 259 259 260 260 263 268 270 271 273 272 269 269 269 269 268 269 269 269 270 270 270
264 262 261 261 260 259 260 262 260 260 259 259 259 259 259 259 259 258 259 259 259 258 259 259 260 263 268 269 271 272 272 269 269 268 268 269 269 270 270 270 270 271
262 262 262 260 260 261 259 259 259 259 259 258 258 258 258 258 258 258 258 258 258 258 260 261 260 261 266 268 270 271 271 270 270 269 268 269 269 269 270 270 270 271
262 261 260 259 260 259 258 258 258 257 257 258 257 257 257 257 257 257 256 257 258 258 258 259 259 260 261 268 270 271 272 270 270 269 269 269 269 269 269 270 270 270

ECMWFNIL_sfc_thetae_048.txt.gz
Theta_e
289 289 288 287 287 287 287 286 286 286 286 285 285 285 284 284 285 285 285 285 285 284 284 284 284 284 285 285 285 285 285 284 284 285 284 285 284 284 284 284 284 284
288 287 287 287 286 286 286 286 285 285 284 284 285 284 284 284 284 284 284 284 284 283 283 283 283 283 283 283 283 283 283 283 283 284 283 283 283 284 283 283 284 284
287 287 287 286 285 285 285 285 285 285 284 284 284 284 284 284 283 283 283 283 283 283 283 283 283 283 282 283 283 283 282 282 282 283 282 283 283 282 282 283 283 283
286 286 286 285 285 285 285 285 285 284 284 284 283 283 283 283 283 283 283 282 282 282 282 282 282 282 282 282 282 282 282 282 282 282 282 282 282 282 282 282 282 282
285 285 285 285 285 285 285 284 284 284 283 283 283 283 282 283 282 282 282 282 282 281 281 281 281 281 281 281 281 281 281 281 281 281 281 281 281 281 281 281 281 280
285 285 285 284 284 284 284 283 283 283 283 282 282 282 282 282 281 281 281 281 281 280 280 280 280 280 280 280 280 280 280 280 280 279 279 279 280 281 281 280 280 280
284 284 284 284 283 283 283 283 282 282 282 282 282 281 281 281 280 280 280 280 279 279 279 279 279 279 279 279 279 278 278 278 278 278 278 278 279 278 279 279 279 279
284 283 283 283 283 282 282 282 281 281 281 280 280 280 280 279 279 279 279 279 278 278 278 278 278 278 277 277 277 277 277 278 277 277 277 277 277 277 278 278 278 278
283 282 282 282 282 281 280 280 280 279 279 279 279 279 279 278 278 278 277 277 277 277 277 277 277 276 276 276 276 276 276 276 277 276 276 276 276 277 277 277 277 277
282 282 282 282 281 280 279 279 279 278 278 278 278 278 277 277 277 276 276 276 276 276 276 276 275 275 275 276 275 275 275 275 276 276 276 276 276 276 276 276 276 275
282 282 281 281 280 280 278 278 278 278 277 276 277 277 276 276 276 276 275 276 275 275 275 275 275 274 274 275 275 275 275 275 275 276 276 276 276 276 276 276 275 275
281 281 281 280 279 278 278 277 277 276 276 276 276 275 275 275 275 275 275 274 274 274 274 274 274 274 274 274 274 274 275 275 275 276 276 276 276 276 276 276 275 275
281 281 280 279 279 278 277 276 276 275 275 275 275 274 274 274 274 273 274 273 273 273 273 273 273 273 273 273 273 274 275 275 275 275 275 275 275 275 276 276 275 275
281 281 280 279 278 277 276 275 275 274 274 274 273 273 273 273 273 272 273 273 272 272 272 272 272 272 273 273 273 274 275 275 275 274 275 275 275 275 275 275 275 275
280 280 279 278 276 276 275 274 274 273 273 273 272 272 272 272 271 271 271 272 272 271 271 272 271 272 272 272 273 274 275 274 275 274 274 274 274 275 275 275 275 275
279 278 277 276 275 274 274 273 273 272 272 272 271 271 271 271 270 271 271 271 271 271 271 271 271 271 270 271 274 274 274 275 274 274 274 274 274 274 274 275 275 275
278 277 277 275 275 274 273 272 272 271 271 270 270 269 269 269 269 270 270 270 270 270 270 270 270 270 270 273 274 275 275 274 274 274 274 274 274 274 273 274 274 273
278 276 275 274 273 272 271 271 270 269 269 269 269 269 269 269 269 269 269 269 269 269 269 270 270 270 271 272 273 275 275 275 274 274 273 273 274 273 273 272 272 272
277 275 274 273 272 271 270 269 268 268 268 268 268 269 268 268 269 268 268 269 268 268 268 269 269 269 270 272 273 274 275 275 274 274 273 273 273 272 272 271 271 271
276 274 273 272 271 270 269 268 268 268 269 269 268 268 268 268 267 267 267 267 267 267 267 268 268 268 270 272 273 274 275 275 274 274 273 272 272 272 271 271 271 271
274 273 272 271 269 269 268 268 268 268 267 268 268 268 268 267 267 266 266 265 266 266 266 266 267 268 270 271 272 273 275 275 273 272 271 271 271 272 271 271 271 271
274 273 271 270 269 268 268 268 268 267 267 268 267 267 267 266 266 266 265 265 265 264 264 265 267 268 269 270 272 273 274 273 272 271 271 271 270 271 271 272 272 272
273 272 271 270 269 268 267 268 268 267 267 267 266 267 267 266 265 265 265 264 264 263 263 264 265 266 268 270 272 273 273 271 271 271 270 270 270 271 271 272 272 272
273 272 270 269 268 267 267 268 268 268 266 266 266 266 266 265 264 264 264 263 263 262 263 262 263 266 268 270 271 272 272 271 271 270 270 270 270 271 272 272 273 274
272 271 270 269 268 268 267 267 266 266 266 265 265 265 264 264 264 264 263 263 263 262 263 263 263 264 267 269 270 271 272 271 271 270 270 270 270 271 272 272 273 274
271 269 269 268 267 267 266 266 266 265 264 264 264 265 264 264 263 263 261 262 262 262 262 263 263 263 265 268 270 271 273 272 271 270 270 270 271 271 272 272 273 273

ECMWFNIL_sfc_thetae_051.txt.gz
Theta_e
291 290 290 289 289 289 288 288 288 287 287 287 286 286 285 286 286 286 286 285 285 285 285 285 285 285 286 286 286 286 286 285 285 285 285 285 285 285 285 284 285 284
290 290 289 289 289 289 288 288 287 287 286 286 286 285 286 286 286 286 286 286 286 285 285 285 285 285 284 285 285 284 284 284 283 285 283 284 284 284 283 284 284 284
289 289 289 288 287 287 287 287 287 286 286 286 286 286 285 286 285 285 285 285 285 285 284 285 284 284 283 283 283 284 283 283 283 283 283 283 283 283 283 283 283 283
289 288 288 287 287 286 286 286 286 286 286 285 285 285 285 285 285 285 284 284 284 284 283 283 283 283 283 283 283 283 283 283 283 282 282 283 283 283 282 282 282 282
288 287 287 287 287 287 287 286 285 285 285 284 285 285 284 284 284 284 283 283 283 282 283 282 282 282 282 282 282 282 282 282 282 281 281 281 282 282 281 281 281 281
287 287 287 287 287 286 286 285 285 285 284 284 284 284 283 284 283 282 282 282 282 281 281 281 281 281 281 281 281 281 280 281 280 280 279 280 280 281 281 281 280 279
286 286 286 286 286 286 285 285 284 284 284 284 283 283 283 282 282 282 281 281 281 281 280 280 280 280 280 280 280 279 279 279 279 279 278 278 279 279 280 279 279 278
286 286 285 285 285 284 284 284 283 283 283 283 282 282 282 281 281 281 280 280 280 279 280 279 279 279 279 278 278 278 277 279 279 277 277 277 278 278 278 279 278 277
285 285 285 284 284 283 282 282 282 282 282 281 281 281 281 280 280 280 279 279 279 279 279 278 278 277 278 277 277 277 276 277 278 277 277 277 277 277 277 277 277 277
284 284 284 283 282 282 281 281 281 281 281 280 280 280 279 279 279 278 278 278 278 278 278 277 277 277 277 277 276 276 276 276 276 276 277 277 276 276 277 276 276 276
283 283 283 282 282 281 281 280 280 280 279 279 279 279 279 278 278 278 277 278 277 277 276 276 276 276 276 276 276 276 275 275 276 276 276 277 276 276 277 276 276 276
282 282 282 282 282 281 280 280 279 279 278 278 278 278 278 278 277 277 277 276 276 276 276 275 276 275 275 275 275 275 275 276 276 276 276 276 276 276 276 276 276 276
282 282 282 282 281 280 280 279 279 278 278 277 278 277 277 277 276 276 276 275 275 275 275 275 274 275 275 275 274 275 275 276 276 276 276 276 276 276 276 276 276 276
283 283 283 282 281 280 279 278 278 277 277 277 277 276 276 276 275 275 275 275 275 274 275 274 274 274 274 274 274 275 276 276 275 275 275 275 276 276 276 276 276 276
283 283 282 281 280 279 278 277 277 277 276 276 276 276 276 275 275 274 274 274 274 274 274 274 273 273 274 273 274 274 275 275 275 275 275 275 275 275 276 276 276 276
283 282 281 280 279 278 277 277 276 276 275 275 275 275 274 274 274 274 273 274 273 274 274 273 273 274 273 272 274 274 275 275 275 275 275 275 274 274 274 275 275 275
282 281 280 279 278 278 277 276 276 275 274 274 274 273 273 273 273 273 273 273 273 273 273 273 273 273 273 273 275 276 275 275 274 274 275 274 274 274 273 274 275 275
281 280 279 279 278 277 276 275 275 274 273 273 273 272 272 272 272 273 273 273 272 272 272 272 273 273 273 274 274 275 276 275 275 274 274 274 274 274 274 274 273 273
281 280 279 278 277 276 275 274 273 272 272 272 271 272 272 271 272 272 271 272 271 271 271 272 272 273 273 274 274 275 276 276 274 274 274 274 274 274 274 273 273 272
281 279 279 277 276 275 274 272 272 271 272 272 272 271 271 271 271 271 271 271 271 271 271 271 271 272 273 273 274 275 275 276 274 274 274 274 274 273 273 272 272 272
281 279 278 277 275 274 273 272 271 271 272 271 271 271 271 270 270 269 270 270 269 269 269 269 270 272 272 273 274 274 275 275 274 274 273 273 273 272 272 272 272 272
280 279 278 276 274 273 272 272 271 271 270 271 271 271 271 271 270 270 269 268 268 268 267 268 269 272 272 273 273 274 275 274 273 272 272 272 272 272 272 272 272 272
280 279 277 275 274 272 272 272 271 271 270 271 270 271 270 269 269 268 268 268 267 266 266 267 267 270 271 272 273 274 274 272 272 271 271 271 271 272 272 272 272 273
280 279 277 275 274 272 272 272 272 271 270 270 269 270 269 269 268 267 267 267 266 265 266 265 266 268 270 271 272 273 273 271 271 271 271 271 271 272 272 272 273 274
279 278 277 275 274 273 272 272 271 271 270 269 269 270 269 268 267 267 266 266 266 265 266 265 265 266 269 271 272 273 272 272 271 271 270 270 271 271 272 272 273 274
279 278 277 275 274 273 272 272 271 270 269 268 268 268 268 268 266 266 265 265 265 264 263 264 264 265 266 270 271 272 273 272 272 271 270 270 271 271 272 273 274 274

ECMWFNIL_sfc_thetae_054.txt.gz
Theta_e
287 287 286 286 285 285 285 284 284 283 283 282 282 282 281 282 282 282 282 282 282 281 282 281 281 281 282 281 281 281 281 280 279 280 279 279 278 279 280 278 278 279
286 286 286 285 285 285 284 284 283 282 282 281 282 281 282 281 282 282 282 282 281 281 281 281 280 280 279 279 279 278 279 278 278 281 278 278 278 277 277 278 277 278
285 284 284 283 283 283 283 283 283 282 282 281 282 282 283 281 281 281 280 280 280 280 280 280 279 278 278 277 278 277 277 277 277 277 277 277 278 277 277 277 277 277
284 284 284 283 283 282 282 282 282 282 281 281 280 281 282 282 281 280 279 280 278 278 278 277 277 277 277 277 277 277 276 277 276 276 276 277 277 277 277 277 277 277
284 284 283 283 283 283 282 281 281 280 280 280 280 280 280 279 279 278 278 278 277 277 277 277 276 276 276 276 276 275 276 276 276 276 275 275 276 277 277 276 276 275
283 283 283 283 283 282 281 281 280 280 280 279 279 280 279 278 278 277 277 277 276 276 276 276 276 276 275 275 275 275 275 276 275 274 274 274 274 275 277 276 275 274
282 282 282 282 282 281 281 280 280 280 279 279 279 278 278 278 277 277 276 276 276 276 275 275 275 274 275 274 274 274 274 275 275 274 273 273 274 274 274 275 274 274
281 281 281 281 281 280 280 280 279 279 279 278 277 277 277 277 277 276 275 275 275 275 275 274 274 274 274 273 273 273 273 276 276 273 273 273 273 273 273 275 274 273
281 281 281 280 280 279 279 279 278 278 278 277 277 277 276 276 276 275 275 275 275 275 274 274 274 274 274 273 273 273 273 272 274 273 273 273 272 273 273 273 273 272
280 280 280 279 279 278 278 277 277 277 277 277 277 276 276 275 275 274 275 274 274 274 273 273 273 273 273 273 273 272 272 273 272 272 273 273 273 272 272 272 272 272
280 280 279 278 277 277 277 277 276 276 276 276 276 276 275 275 275 274 273 274 274 273 273 272 272 273 273 273 273 272 272 272 272 273 273 273 273 273 275 273 272 272
279 279 278 277 277 277 276 277 277 277 277 277 276 275 274 274 274 273 273 272 272 272 272 272 272 272 272 271 272 272 272 272 273 273 273 273 273 273 272 273 272 272
279 279 278 277 277 277 277 277 277 277 276 275 275 274 273 273 273 272 273 272 272 272 272 272 272 271 271 271 271 272 272 273 273 273 273 273 273 273 273 272 272 272
279 278 278 278 278 277 277 276 276 276 276 276 275 274 273 273 272 272 272 272 271 271 271 271 271 271 271 271 271 272 272 273 273 273 273 273 272 272 273 273 273 272
279 279 279 279 279 278 277 277 276 276 276 275 274 273 274 272 272 272 272 271 271 271 271 271 271 272 271 271 270 272 272 272 273 272 272 272 272 272 272 272 272 273
280 280 279 279 278 278 277 276 276 275 274 273 272 272 271 271 271 271 271 271 270 271 271 271 271 272 274 276 275 271 272 273 273 272 272 272 271 271 271 272 272 273
280 279 279 278 278 277 276 276 275 274 273 271 270 269 270 270 270 270 270 270 270 270 270 271 271 272 276 276 277 277 275 274 273 273 274 273 272 271 271 271 272 272
280 280 279 278 278 277 276 276 274 273 272 271 270 269 269 268 269 269 270 270 270 269 269 270 270 275 277 277 277 277 277 274 274 273 273 273 273 272 272 271 271 271
281 280 279 278 278 277 276 275 274 273 271 270 269 269 267 268 270 270 269 269 269 269 269 269 269 275 277 277 277 277 277 276 275 274 273 273 273 273 273 272 270 270
280 280 279 278 277 276 275 274 273 272 271 270 269 269 269 268 267 268 268 268 268 268 268 268 268 274 277 277 276 276 277 276 274 274 273 273 273 273 273 271 269 269
280 280 279 278 277 276 274 273 272 271 270 269 269 270 269 268 268 268 267 266 266 266 267 267 268 274 276 276 276 276 276 276 274 274 273 273 273 273 270 269 269 270
280 279 279 278 276 275 273 273 271 270 269 269 269 268 268 267 267 267 267 267 266 265 265 266 266 274 275 276 276 276 276 274 273 273 272 272 270 271 270 270 270 270
280 279 279 277 276 274 273 272 271 269 269 269 268 269 269 268 267 267 267 266 265 265 265 265 264 270 275 276 276 276 275 273 272 271 271 270 270 271 270 270 270 270
280 280 279 277 275 273 272 272 270 270 269 269 269 268 268 268 267 265 265 265 265 264 265 263 263 268 273 275 275 276 275 271 270 270 270 270 270 271 271 271 271 273
280 279 279 276 274 274 272 271 271 270 269 269 268 268 268 267 266 265 264 264 264 264 267 265 263 266 272 274 275 275 275 272 271 270 269 269 270 270 271 271 272 273
279 279 278 276 275 274 272 272 271 269 268 268 267 267 267 266 265 265 264 264 263 263 263 265 264 263 265 272 274 275 276 272 270 269 269 269 270 270 270 271 272 272

ECMWFNIL_sfc_thetae_057.txt.gz
Theta_e
286 285 285 285 284 284 283 282 282 282 281 281 281 280 280 280 281 281 281 281 281 280 280 279 279 279 280 278 278 279 279 278 278 277 277 278 277 277 278 277 276 277
285 285 285 284 284 283 282 283 282 281 281 280 281 281 281 281 281 281 281 280 280 279 279 279 278 278 277 277 277 278 277 277 277 279 277 276 277 276 276 276 276 276
284 284 284 283 283 282 281 281 281 280 280 280 280 281 281 281 280 280 280 279 279 278 278 278 277 277 277 276 276 277 277 275 276 275 276 276 276 276 276 276 276 276
283 283 283 282 282 281 281 281 280 280 280 280 280 281 281 281 280 280 279 279 278 278 277 277 276 276 276 276 276 276 276 275 275 275 275 275 276 275 275 276 276 275
283 282 282 282 281 281 281 280 280 280 280 280 280 280 280 279 279 279 278 278 277 277 277 276 275 275 275 275 275 275 275 275 274 274 274 274 274 276 276 275 274 274
282 282 282 282 281 281 280 280 280 280 280 280 280 280 279 279 278 278 277 277 277 276 276 275 275 275 274 274 274 274 274 275 274 273 273 273 273 274 276 275 274 273
281 281 281 281 281 280 280 279 279 280 280 279 279 279 278 278 277 277 277 276 276 276 275 275 274 274 274 273 273 273 273 274 273 273 272 272 273 272 273 273 273 273
281 281 281 281 280 280 279 279 279 279 279 279 278 278 278 278 277 277 277 276 276 275 275 274 274 273 273 272 272 272 273 275 273 272 272 272 272 272 272 274 272 272
281 281 280 280 280 279 279 279 279 278 278 278 278 277 277 277 277 276 276 276 275 275 274 273 273 272 272 272 272 271 271 271 272 271 272 271 272 272 272 272 272 272
280 280 280 279 279 279 279 278 278 278 278 277 277 277 277 276 276 276 276 275 275 274 273 273 273 272 272 272 272 271 271 271 271 271 271 271 272 272 272 272 272 271
280 280 279 279 279 278 278 278 277 277 277 276 276 276 276 276 275 275 275 275 275 273 273 272 272 272 272 271 271 271 271 271 271 271 272 272 272 272 275 272 272 272
280 279 279 279 278 278 277 277 277 277 276 276 277 276 275 275 275 275 276 275 274 273 273 272 272 271 271 271 270 271 271 271 271 271 272 272 272 272 272 272 272 272
279 279 279 278 278 277 277 276 276 276 277 276 277 276 275 275 276 276 275 274 273 272 272 272 271 271 270 270 270 270 270 271 271 271 272 272 272 272 272 272 272 272
280 279 278 278 277 277 276 276 276 276 277 277 276 276 275 275 275 275 274 274 273 272 272 271 270 270 270 269 270 270 271 271 271 271 271 272 272 272 272 272 272 272
279 279 278 277 277 277 276 276 276 276 276 277 276 276 276 275 275 275 273 273 272 272 271 271 271 271 271 270 270 271 271 271 271 270 270 270 271 271 271 271 271 271
279 278 278 278 277 277 277 276 276 276 276 276 276 276 275 275 274 273 272 272 272 272 271 271 271 271 273 276 276 272 271 272 271 270 270 270 270 270 270 270 271 271
279 279 278 278 278 278 277 276 276 275 275 276 275 275 274 273 273 273 273 272 272 271 270 270 270 271 276 278 278 278 273 271 270 270 270 270 270 269 269 269 269 270
279 279 279 278 278 278 277 277 276 276 275 275 274 274 273 273 273 273 272 272 271 270 269 269 270 274 277 279 280 279 277 272 270 269 269 271 271 270 270 270 269 270
280 279 279 278 278 277 277 276 276 275 275 274 274 274 273 272 272 272 271 271 270 269 269 269 269 276 278 279 280 280 280 276 273 272 272 271 272 271 271 271 270 270
280 279 279 278 278 277 276 276 275 275 275 274 274 273 273 273 272 271 271 270 270 269 269 268 268 274 278 280 280 280 280 278 274 274 273 272 272 272 272 272 271 269
279 279 279 278 278 277 276 275 275 274 274 274 273 273 272 272 271 271 270 269 268 268 268 268 268 275 278 280 280 280 279 278 274 274 273 272 273 273 273 273 271 270
280 280 279 278 277 277 276 276 275 274 274 273 273 273 272 272 271 270 270 268 268 267 267 267 267 276 277 279 280 280 279 276 274 273 272 272 272 272 272 271 270 269
280 280 279 278 277 276 276 276 275 274 274 273 272 273 272 271 270 269 268 268 267 267 267 267 266 273 277 278 279 280 278 274 273 272 272 271 271 270 270 269 269 269
280 279 279 278 277 276 275 276 275 275 274 273 272 272 271 270 269 267 267 267 267 266 267 266 266 270 276 278 279 280 278 272 272 271 270 270 269 270 269 269 269 272
279 279 279 278 277 276 276 276 276 275 274 272 272 271 270 268 267 267 266 265 266 266 269 267 265 268 275 277 279 280 278 272 271 269 268 268 268 269 269 269 269 271
279 279 279 278 278 277 276 277 276 273 272 271 270 269 268 267 267 267 266 266 265 265 265 267 265 264 267 277 278 279 279 273 271 269 268 268 268 268 267 267 268 269

ECMWFNIL_sfc_thetae_060.txt.gz
Theta_e
284 283 283 283 283 283 282 282 282 281 281 280 280 280 280 280 280 280 279 279 279 279 279 279 279 279 280 279 278 278 278 278 278 277 277 277 276 277 277 276 276 276
283 283 283 283 283 283 281 281 281 281 280 280 280 280 280 280 279 280 279 279 279 278 278 278 278 278 278 278 277 277 277 277 278 279 277 276 276 276 276 275 275 275
283 283 282 282 282 281 281 280 280 280 280 280 280 280 280 280 280 279 279 278 278 278 278 278 278 278 278 277 277 277 276 276 276 276 277 276 276 276 275 275 275 275
283 283 282 282 281 281 280 280 279 279 280 280 280 280 281 281 279 279 278 279 278 277 277 277 277 277 277 276 276 275 275 275 275 275 276 276 276 275 275 275 275 274
283 282 282 281 281 280 280 280 279 279 280 280 280 280 280 279 279 278 278 277 277 277 277 277 276 276 276 276 275 275 275 275 274 274 275 274 274 275 275 274 273 273
282 282 282 281 281 280 280 280 280 280 279 279 280 280 279 279 278 278 278 277 277 276 276 276 276 275 275 275 275 274 274 274 274 273 273 273 273 274 275 274 273 272
282 281 281 281 280 280 280 279 279 280 280 280 280 279 279 278 278 277 277 277 276 276 276 275 275 275 275 274 274 274 274 273 272 273 273 273 273 273 273 273 272 272
281 281 281 281 280 279 279 279 279 279 279 279 279 279 278 278 278 277 277 276 276 275 275 276 275 275 274 274 274 274 274 274 273 272 272 272 272 272 272 273 272 271
281 281 280 280 280 279 279 279 279 279 279 279 279 278 278 278 277 277 276 276 276 276 276 276 275 274 273 273 273 273 273 273 272 272 272 272 272 272 271 271 271 271
281 281 280 280 279 279 279 279 279 279 279 279 278 278 277 277 277 276 276 276 276 276 275 274 273 273 273 273 272 272 272 272 272 271 271 271 271 271 271 271 270 270
280 280 280 280 279 279 278 278 278 278 278 278 277 277 277 276 276 276 276 276 276 275 275 274 274 274 273 272 272 271 272 271 271 271 271 271 271 271 274 270 270 270
280 280 280 280 279 279 278 278 278 278 278 277 277 277 276 276 276 276 276 275 276 275 275 274 274 274 274 272 271 271 271 271 271 271 271 271 271 271 271 270 270 270
280 280 280 279 279 279 279 278 278 278 277 277 277 277 277 276 276 275 276 275 275 275 275 274 273 272 272 271 271 270 270 271 271 271 271 270 270 270 270 270 270 270
280 280 280 279 279 279 278 278 278 278 278 277 277 276 276 276 276 276 276 276 275 275 275 274 273 273 272 271 270 270 271 271 271 271 271 271 271 270 270 270 270 270
280 280 279 279 278 278 278 278 278 278 278 276 276 277 277 277 277 276 274 275 275 275 273 273 273 273 272 271 271 271 271 271 271 271 271 271 270 270 270 270 270 270
281 280 279 278 278 278 277 278 278 278 277 276 276 276 276 276 276 276 275 275 274 274 274 273 273 272 274 277 276 272 271 272 271 271 271 271 271 270 270 270 270 270
280 280 279 278 278 278 278 278 278 277 276 276 276 275 275 275 275 275 275 275 274 274 273 272 272 272 277 279 279 278 273 271 271 270 270 271 270 270 270 270 270 270
280 280 279 279 278 278 278 278 277 275 275 276 276 276 276 275 275 275 275 274 274 273 273 273 273 275 279 280 281 280 277 272 271 270 270 271 271 270 270 270 270 270
280 280 279 279 278 278 278 277 276 276 276 276 276 276 275 274 275 275 274 273 273 273 272 272 272 277 280 281 281 282 281 275 270 270 270 270 271 271 270 270 269 269
280 280 279 279 278 278 277 276 276 276 276 276 276 275 275 274 274 274 274 273 273 273 272 272 272 276 280 281 282 282 282 278 271 271 271 270 271 271 270 270 270 269
280 280 279 279 278 278 277 276 276 276 276 276 276 275 275 274 274 274 274 273 273 273 272 272 271 276 280 281 282 283 283 281 272 272 272 272 272 271 271 270 270 270
280 280 279 279 278 277 276 276 276 276 276 276 275 275 275 275 274 274 273 273 273 272 272 271 271 277 280 281 282 283 283 279 273 273 272 272 271 271 271 271 271 271
280 280 279 278 278 277 277 277 277 276 276 276 274 275 275 274 274 274 273 273 272 271 271 271 271 275 280 281 282 283 282 275 273 273 272 271 271 271 271 271 270 270
280 280 279 279 278 277 277 277 277 277 276 276 275 274 274 274 274 273 273 272 272 271 271 271 270 272 279 281 282 283 282 274 273 273 272 272 271 271 270 270 270 272
280 280 280 279 278 278 278 277 277 277 277 275 275 275 275 274 273 272 272 271 271 271 272 270 269 270 278 281 282 282 281 274 273 272 271 270 270 269 270 269 269 271
280 280 280 280 279 279 278 277 277 276 275 274 273 273 273 272 272 272 271 271 270 269 268 269 268 267 271 280 281 282 283 275 272 271 270 269 269 268 267 268 268 268

ECMWFNIL_sfc_thetae_066.txt.gz
Theta_e
287 287 286 286 285 285 283 282 281 281 280 280 281 280 281 280 280 280 280 280 279 279 279 279 279 280 280 279 279 279 279 278 278 278 278 278 277 277 277 276 276 276
287 287 286 286 285 284 284 283 282 281 281 280 280 280 280 280 280 280 279 279 279 279 279 279 279 279 279 279 278 278 278 278 278 279 278 277 277 277 277 277 276 276
286 285 285 284 284 283 282 281 281 281 280 280 279 280 280 280 280 279 279 279 279 279 279 279 279 279 279 278 278 278 278 278 277 277 277 277 277 277 276 276 276 275
285 285 285 284 284 283 281 280 280 279 280 279 279 280 280 280 279 279 279 280 279 279 279 279 279 278 278 278 278 277 277 277 277 277 276 276 276 276 276 276 275 275
284 284 284 283 282 281 280 280 280 279 279 279 279 279 280 279 279 278 278 278 279 279 279 278 278 278 278 277 277 277 277 277 277 277 276 276 275 276 275 275 274 274
284 284 283 283 282 280 280 280 280 280 279 279 279 279 279 279 279 278 278 278 278 278 278 277 277 277 277 277 276 277 277 277 276 276 276 275 275 275 275 275 274 274
283 283 282 282 281 280 280 280 279 279 279 279 279 279 279 279 279 279 278 279 278 278 277 277 277 276 276 276 276 276 276 276 276 276 275 274 274 274 274 274 274 273
283 282 282 281 280 279 279 279 279 279 279 278 279 279 279 279 279 279 278 278 278 277 277 277 277 277 276 276 276 276 275 275 275 275 274 274 273 273 273 273 273 272
282 282 281 280 280 279 279 278 278 278 278 278 279 278 278 278 278 278 278 278 278 278 278 277 277 276 275 275 276 276 276 275 275 274 274 273 273 272 272 272 272 272
282 281 280 279 279 279 278 278 278 278 278 278 278 278 278 277 277 277 278 278 278 277 277 277 277 276 275 276 276 276 276 275 275 274 274 273 273 272 272 272 272 272
281 281 280 279 279 278 278 278 278 277 278 277 277 277 278 277 278 278 278 278 278 277 277 277 276 276 276 276 276 276 276 276 275 274 274 273 273 273 274 272 272 272
281 280 280 279 279 278 278 278 277 277 278 278 278 278 278 278 278 277 278 278 278 278 277 277 276 276 276 276 276 276 275 275 275 274 274 273 273 272 273 272 273 272
281 280 280 279 279 278 278 278 278 278 279 279 279 279 278 278 278 278 278 278 278 277 277 277 276 276 276 276 276 275 275 275 275 275 274 273 273 272 273 273 273 272
282 281 280 279 279 279 279 279 279 279 279 279 279 279 278 278 278 278 278 277 277 277 277 276 276 276 275 275 275 275 275 274 275 275 274 273 273 273 273 273 273 272
282 281 281 280 280 279 279 279 279 279 279 279 279 279 279 279 278 278 277 277 277 276 276 276 276 276 276 275 275 275 275 275 275 275 274 274 274 273 273 273 272 271
282 282 281 281 280 280 279 279 279 279 279 279 279 279 279 278 278 278 277 277 276 276 276 275 275 275 277 279 278 275 275 275 275 275 275 274 274 273 273 273 272 272
282 282 281 281 280 280 280 279 279 279 279 279 279 279 278 278 277 277 277 277 276 276 275 275 275 275 278 280 281 280 276 275 275 275 275 275 274 274 273 273 273 273
282 282 281 281 281 280 280 280 279 279 279 279 278 278 278 278 277 277 277 277 276 276 275 275 275 278 280 281 282 282 280 276 275 275 275 275 274 274 274 273 273 272
282 282 281 281 281 280 280 279 279 278 278 278 278 278 278 277 277 277 277 276 276 276 275 275 275 279 281 282 283 283 283 278 275 275 275 275 275 274 274 273 273 272
282 282 282 281 281 281 280 279 279 278 278 278 278 278 277 277 277 277 277 276 276 276 275 275 275 278 281 282 283 284 284 282 275 276 275 275 275 274 274 274 273 272
282 282 281 281 281 280 279 279 278 278 278 278 278 278 277 277 277 276 276 276 276 276 275 275 275 279 281 283 284 284 285 284 277 275 275 275 275 274 274 274 273 273
282 282 281 281 281 280 279 279 278 278 278 278 278 278 277 277 277 277 277 276 276 276 275 275 276 280 281 282 284 285 286 283 279 275 275 274 274 274 274 274 273 273
281 281 281 280 280 279 279 278 278 278 278 278 277 277 277 277 276 277 277 277 276 276 275 276 276 279 281 282 283 285 285 283 280 276 275 274 273 274 273 273 273 272
280 281 281 281 280 279 279 279 279 279 278 278 277 277 277 277 277 277 277 277 277 276 276 276 276 278 281 282 283 284 284 282 281 277 276 274 273 273 272 272 272 274
281 281 281 280 279 280 279 279 278 278 278 278 278 278 278 278 277 277 277 277 276 277 278 276 276 277 280 281 283 283 284 283 281 277 276 275 274 273 273 272 271 273
281 281 280 280 280 280 279 279 279 279 278 278 278 278 278 278 277 277 277 277 276 276 276 276 276 275 276 281 282 283 284 282 280 277 276 276 276 275 274 273 273 272

ECMWFNIL_sfc_thetae_072.txt.gz
Theta_e
299 297 295 295 295 296 295 295 296 295 294 294 293 293 291 291 290 289 289 291 292 293 293 293 293 294 294 294 294 294 294 294 293 292 292 292 293 292 292 291 291 290
299 297 295 295 295 295 295 297 296 293 293 292 293 292 292 291 290 290 289 290 291 292 291 292 292 292 292 292 292 292 292 291 290 291 291 291 290 290 290 290 290 290
299 297 296 295 294 295 295 295 293 292 293 293 293 292 291 290 289 289 289 290 290 290 290 290 290 290 290 291 291 291 290 290 289 289 290 289 289 289 289 289 289 289
298 297 296 295 295 295 294 292 292 291 291 291 291 291 290 289 288 288 289 288 290 289 289 289 289 289 289 289 290 289 289 288 288 288 288 287 287 287 287 287 286 286
297 296 296 295 295 293 292 291 290 290 290 290 289 289 288 288 287 287 287 289 289 289 288 288 288 288 288 288 289 288 287 286 286 287 286 285 285 284 284 285 284 284
296 296 296 295 293 291 290 290 290 289 290 289 289 288 288 288 287 287 287 288 288 288 288 287 287 287 287 287 287 287 286 285 285 285 284 284 283 283 283 283 283 283
295 295 295 294 291 291 290 290 290 289 290 290 288 287 287 287 287 287 288 288 287 287 287 286 286 286 286 286 286 286 285 284 284 284 284 283 283 282 282 283 283 282
295 295 294 292 290 289 289 289 288 288 288 287 286 287 286 286 287 287 287 287 287 286 286 286 286 285 285 285 285 284 283 284 283 283 283 283 283 282 282 282 281 281
294 293 291 290 289 289 288 287 287 286 286 286 285 286 286 286 286 286 287 287 286 286 286 285 285 284 285 285 284 284 283 282 283 283 283 283 282 282 282 281 280 280
293 292 291 289 288 288 288 287 287 287 287 286 286 285 284 285 285 286 286 286 285 285 285 284 284 284 284 284 284 283 282 282 282 283 283 283 283 282 281 280 280 279
292 291 290 288 287 286 286 286 286 286 286 284 284 283 284 284 284 284 284 285 285 284 284 284 284 283 283 282 283 283 283 282 282 282 283 283 283 281 280 279 279 279
291 290 289 288 287 287 286 285 285 285 285 284 283 283 283 283 283 283 284 284 285 284 284 284 283 283 282 283 283 283 283 282 282 282 282 282 281 280 279 279 279 279
289 289 289 288 288 287 285 285 285 285 284 284 283 283 283 282 282 282 283 284 284 284 283 283 283 283 283 283 283 282 282 282 282 282 281 280 279 278 278 278 278 278
289 288 288 288 288 287 284 284 284 284 284 284 283 283 283 282 282 282 283 283 283 282 282 283 283 283 283 282 282 282 282 281 281 281 280 279 278 278 278 277 278 278
290 288 287 287 286 285 284 284 284 283 283 283 283 283 282 282 282 282 282 282 282 282 281 281 281 282 282 281 281 282 282 281 281 281 280 278 277 277 277 277 277 278
290 289 287 286 285 284 285 284 284 283 283 283 283 283 282 282 282 282 282 282 281 281 281 280 280 281 282 283 283 282 282 282 282 281 280 278 277 277 277 277 277 278
290 289 287 285 285 285 284 283 283 283 283 282 283 283 282 282 282 282 282 282 281 280 280 280 280 280 283 284 284 284 282 282 281 280 279 278 278 277 277 277 277 278
289 288 286 285 285 284 284 284 283 283 283 282 282 282 282 282 281 281 281 282 281 281 280 280 279 282 284 285 285 284 283 281 281 280 279 278 278 278 278 278 278 278
288 287 286 285 285 285 284 283 283 282 282 282 282 282 282 281 281 281 281 281 280 280 279 279 279 282 284 285 285 284 283 281 281 281 280 279 279 278 278 279 279 278
287 286 286 285 285 285 284 284 283 283 283 283 282 282 282 281 281 281 281 281 280 280 280 279 278 282 284 285 285 285 284 282 281 280 280 280 279 279 279 279 279 279
287 287 286 285 285 285 284 283 283 283 283 283 282 282 281 281 281 281 281 281 280 280 279 279 279 283 285 286 285 285 285 283 280 280 280 279 279 279 279 279 280 280
286 286 286 285 285 284 284 283 283 283 282 283 282 282 282 282 281 281 281 281 280 279 279 278 278 283 285 286 286 286 286 282 280 279 279 279 279 280 280 280 280 280
287 286 286 285 285 284 283 283 283 282 282 282 281 282 281 280 280 281 280 280 279 279 278 278 278 282 285 285 286 286 286 283 281 280 280 280 280 280 280 280 279 279
286 286 285 285 284 283 284 283 283 283 282 282 281 280 280 280 280 280 279 279 279 279 278 278 278 281 284 285 286 286 286 284 283 282 282 282 282 281 281 280 280 280
286 286 285 284 284 284 284 284 283 282 282 282 282 281 280 280 280 279 279 279 279 278 280 278 278 280 284 285 285 286 286 285 285 284 284 284 284 284 284 283 282 282
286 285 285 284 284 284 284 284 283 282 281 281 281 281 280 280 279 279 278 278 278 278 279 279 278 278 282 285 285 286 286 285 285 284 284 284 285 285 285 284 283 282

ECMWFNIL_sfc_thetae_075.txt.gz
Theta_e
306 307 305 304 304 305 303 302 302 301 299 300 300 299 296 295 294 292 292 293 294 295 296 297 299 300 300 300 301 301 301 301 300 300 299 298 297 297 296 295 295 293
305 305 303 304 303 302 303 303 303 302 301 300 299 298 298 297 295 293 293 293 293 294 295 296 297 298 298 298 299 298 297 297 295 296 295 295 295 295 294 294 293 292
305 304 303 301 302 302 302 301 302 301 301 300 299 298 296 297 294 293 293 293 293 294 294 294 294 295 296 296 296 295 295 295 293 293 293 293 292 292 292 291 291 291
304 304 302 301 301 301 301 300 299 298 298 298 298 296 295 295 293 292 292 291 292 291 292 292 292 292 293 294 294 294 293 293 292 292 291 291 291 290 289 289 288 287
303 302 301 301 301 301 300 298 297 296 295 296 296 294 292 291 290 290 290 290 290 290 290 291 291 291 292 292 292 292 291 290 290 290 289 288 288 288 287 287 286 286
303 303 301 300 300 299 299 298 296 295 293 293 294 292 291 290 289 289 289 289 289 289 289 289 289 290 291 291 291 290 289 289 288 288 286 285 285 286 286 285 284 284
302 301 300 300 298 298 297 295 295 294 293 293 292 291 290 289 289 288 288 289 288 288 288 288 289 289 290 289 289 288 287 287 286 286 285 284 284 283 284 284 284 283
301 300 300 299 297 297 296 294 294 293 292 291 291 291 289 289 288 288 287 288 288 288 287 287 287 288 288 288 287 286 285 287 286 285 284 283 283 282 283 284 283 282
300 298 298 297 297 296 295 294 293 292 291 290 290 289 289 289 288 288 287 287 287 287 287 286 287 287 287 287 286 285 285 285 285 284 284 283 282 282 282 282 282 282
298 297 297 296 295 295 293 292 292 292 290 289 289 289 288 288 288 288 287 286 286 286 286 286 286 286 286 286 286 285 284 284 284 284 284 283 283 282 282 282 282 281
297 296 295 294 294 293 293 292 291 289 288 288 288 287 287 287 287 287 287 286 286 285 285 285 285 285 285 285 285 285 284 284 284 284 284 284 283 283 282 282 282 281
296 295 295 295 293 292 291 293 290 288 287 287 287 287 286 286 286 286 286 286 286 285 285 285 285 285 285 284 284 284 284 284 284 284 284 283 283 282 282 282 281 280
295 294 294 293 293 292 291 290 289 288 287 286 286 286 285 285 285 285 285 285 285 285 284 284 284 284 285 284 284 284 283 283 283 283 283 282 282 281 281 281 281 280
295 294 293 293 292 291 290 288 288 287 286 286 285 285 285 284 284 284 284 285 284 284 284 285 284 284 284 284 284 284 283 282 283 282 281 281 281 281 281 280 280 279
295 294 293 292 291 291 289 288 287 286 286 285 285 285 285 285 284 284 284 283 284 284 283 284 284 284 284 283 283 283 283 282 282 282 281 280 280 279 279 279 279 279
294 293 292 291 292 289 288 287 286 286 285 285 285 285 285 284 284 284 283 283 283 283 283 283 284 284 284 286 285 283 282 283 283 282 281 280 279 278 278 278 278 278
293 292 292 290 290 289 288 287 286 285 285 285 285 284 284 284 284 283 282 282 282 282 282 282 283 283 285 288 288 286 283 283 282 282 281 280 279 279 278 278 278 278
293 291 291 290 288 287 287 286 286 285 285 285 284 284 284 284 283 283 283 282 282 282 281 281 282 284 287 288 288 288 285 283 283 282 281 280 279 279 279 278 277 278
292 291 290 289 288 287 286 286 285 284 284 284 284 284 284 283 283 282 282 282 282 281 281 281 281 285 287 288 288 287 287 284 283 282 281 280 279 279 279 279 278 278
291 289 288 288 287 287 286 285 284 284 284 284 284 284 283 283 283 283 283 282 282 282 282 281 282 284 286 287 287 287 287 285 283 282 281 280 280 279 280 279 279 279
290 289 288 287 287 286 285 285 284 284 284 284 284 283 282 282 282 282 282 282 282 282 282 281 280 284 286 286 287 287 287 285 283 282 282 282 281 280 280 279 280 280
288 288 287 286 286 285 285 284 284 284 284 284 284 284 284 283 283 283 282 282 282 281 281 280 280 284 285 286 287 287 286 283 283 282 282 281 280 279 280 280 280 281
289 288 287 286 285 285 284 284 284 284 284 284 283 283 283 282 282 282 282 282 281 281 280 280 280 283 285 286 286 286 285 282 282 281 280 279 279 279 279 280 281 281
288 287 286 285 285 284 284 284 284 284 284 284 283 282 282 282 282 282 282 282 281 280 280 280 279 282 285 286 286 286 284 281 280 280 279 279 279 280 280 280 280 282
288 287 286 285 285 284 284 284 284 284 284 284 284 283 282 283 282 281 280 281 280 280 282 280 279 281 285 286 286 286 284 282 280 280 280 280 280 280 281 280 281 282
287 286 286 285 285 284 284 284 284 284 283 283 283 283 282 281 281 281 279 279 280 280 280 279 278 280 284 286 286 287 286 284 283 281 281 281 282 283 283 283 283 283

ECMWFNIL_sfc_thetae_078.txt.gz
Theta_e
305 306 307 308 308 307 306 303 302 302 300 300 299 297 297 296 295 294 295 296 297 298 299 301 302 303 303 303 303 303 303 302 302 301 301 300 297 296 295 292 290 287
304 305 305 307 305 304 304 303 301 301 300 300 301 300 299 297 296 294 294 294 295 296 298 299 300 301 301 301 302 301 298 297 297 299 297 295 294 294 291 289 286 284
302 303 303 303 304 302 301 302 302 302 301 300 300 301 299 297 295 294 293 293 294 295 296 297 298 299 299 299 299 297 296 294 293 292 293 293 292 291 289 287 285 283
301 302 302 302 303 302 301 300 301 300 300 300 299 298 297 296 294 293 293 292 293 293 293 294 295 294 293 293 293 294 294 294 293 291 291 290 290 290 288 286 284 282
301 301 302 301 301 301 301 300 299 299 298 298 297 295 294 293 292 291 291 291 291 290 291 292 292 292 292 292 291 290 290 290 290 291 290 288 288 287 285 285 283 281
300 301 301 301 300 300 299 299 298 297 297 296 296 293 292 291 291 290 290 290 290 290 290 290 291 290 291 291 291 290 290 289 289 289 288 287 285 285 284 283 282 281
299 299 298 298 298 299 298 298 296 295 294 295 293 292 291 290 290 290 290 289 289 289 289 289 290 290 290 290 290 289 288 288 287 287 286 284 283 281 281 281 281 280
298 297 297 296 295 295 295 295 295 294 293 292 292 290 290 290 289 289 289 288 288 288 289 289 289 289 289 290 289 288 287 287 286 285 284 282 282 281 280 281 280 279
296 295 294 293 293 293 293 293 293 292 291 291 290 288 289 290 289 288 288 288 288 287 288 288 288 288 288 289 288 288 286 286 285 285 283 281 280 280 280 279 279 279
294 293 292 291 292 291 292 292 292 291 290 291 290 288 288 288 288 288 287 287 287 286 287 287 287 288 288 288 288 287 286 286 284 284 282 281 281 280 279 279 279 278
293 292 292 291 291 290 290 290 290 290 289 290 289 288 288 287 287 287 286 286 286 286 286 286 286 287 287 287 287 286 286 285 283 283 282 280 280 280 281 279 279 279
292 292 292 292 291 290 289 289 289 289 289 289 289 288 287 287 287 286 286 286 286 286 285 285 285 285 285 285 285 285 284 284 283 282 281 280 279 280 279 279 279 279
292 292 292 292 291 291 290 289 288 288 288 288 288 288 287 286 286 286 286 286 285 285 285 284 284 284 284 284 284 284 284 283 282 281 280 279 278 279 279 279 278 278
292 291 291 291 291 290 289 289 288 287 287 287 287 287 286 286 286 286 286 286 285 285 284 284 283 283 284 284 284 283 283 282 281 281 280 279 278 279 279 279 278 278
291 291 290 290 290 289 288 288 287 287 286 286 286 286 286 286 285 285 285 285 284 284 284 284 283 283 284 283 283 282 282 282 281 281 280 279 279 278 278 277 277 278
291 290 290 289 289 289 288 287 286 286 286 285 284 284 285 285 284 284 284 284 283 283 283 283 283 284 284 286 286 283 282 282 281 280 280 279 277 277 277 278 278 278
290 289 288 288 288 288 287 286 285 285 285 285 283 283 284 284 284 283 283 283 283 282 281 281 283 283 285 288 288 287 283 281 281 280 279 279 278 278 277 277 277 278
289 288 288 287 287 287 286 285 284 284 284 285 284 283 284 284 283 283 283 282 282 281 280 280 282 285 288 288 289 288 285 282 281 281 280 279 278 278 277 277 277 278
288 287 287 286 286 285 285 284 284 283 284 284 284 284 284 284 283 283 283 282 282 281 280 280 281 287 288 289 289 289 287 284 281 281 280 279 278 278 277 277 277 278
287 287 287 286 285 285 284 283 283 283 284 284 284 284 283 283 283 283 283 282 282 282 282 281 281 287 288 289 288 289 287 285 281 281 280 279 278 278 278 278 278 278
287 286 286 285 285 284 283 283 283 283 283 284 284 284 283 283 283 282 282 282 282 282 282 281 281 288 289 288 289 288 288 285 281 281 280 279 279 278 278 278 278 278
286 285 285 284 284 283 283 282 282 282 283 284 284 283 284 283 283 283 282 282 282 282 281 281 282 287 287 288 288 288 287 282 282 281 280 279 279 278 278 278 278 279
286 285 284 284 283 283 282 281 281 281 282 284 283 283 283 282 282 282 282 282 282 281 281 281 281 285 287 287 287 288 285 282 281 281 280 279 278 278 278 279 280 280
285 285 284 283 283 282 282 281 281 281 282 283 283 282 282 282 282 282 282 282 281 281 281 280 280 284 287 287 287 287 283 281 281 280 279 278 278 279 279 279 280 282
284 284 284 283 282 282 281 281 281 281 282 283 283 283 282 282 282 281 281 281 281 281 282 280 280 283 287 287 287 286 283 281 280 279 278 278 278 278 279 279 280 282
284 284 283 283 282 281 281 281 281 281 281 282 282 282 282 281 281 281 280 280 280 280 281 280 280 282 285 287 287 286 284 281 280 279 278 278 279 279 278 279 279 280

ECMWFNIL_sfc_thetae_081.txt.gz
Theta_e
303 303 304 304 305 305 302 302 302 301 300 301 300 299 299 299 298 297 298 299 301 302 303 304 304 305 304 304 303 302 301 301 301 301 301 300 299 298 297 296 294 294
302 302 302 303 303 303 303 302 302 303 301 301 301 300 299 299 298 297 297 298 298 300 301 302 303 304 304 303 302 301 301 300 300 301 300 298 298 297 296 295 294 293
301 301 301 302 303 303 302 301 301 303 303 302 301 300 299 298 297 297 297 297 297 298 299 300 301 302 302 302 302 300 298 298 298 297 298 298 296 296 294 293 291 290
301 301 302 302 302 302 301 301 300 301 302 301 301 300 300 298 297 296 296 295 296 296 296 297 298 298 300 300 299 297 297 297 297 295 295 293 293 294 292 291 290 288
300 300 301 301 300 301 300 300 299 300 301 301 300 299 297 296 295 293 293 293 293 293 293 293 294 294 294 295 295 295 294 295 294 293 294 292 291 292 290 289 288 287
299 300 300 300 299 299 299 299 298 298 299 299 299 297 296 296 294 293 292 292 292 292 292 292 292 292 292 293 293 294 293 292 291 292 293 292 290 289 288 288 287 286
298 298 298 299 297 298 298 298 297 296 296 297 295 295 295 294 293 293 292 292 291 291 291 291 292 292 291 291 292 292 291 292 290 291 291 289 288 287 286 287 286 285
296 296 297 297 296 295 293 294 294 294 294 293 294 294 294 294 293 292 292 291 291 291 291 291 291 292 291 291 291 291 290 291 290 290 290 289 288 287 286 286 285 284
294 293 294 293 293 293 292 292 293 292 292 293 294 293 292 293 293 292 291 291 290 290 290 290 291 291 290 291 291 291 290 290 290 290 290 288 287 287 285 285 284 284
293 292 291 291 292 292 292 292 292 291 290 292 293 292 292 291 291 291 290 290 290 289 289 290 290 290 290 291 291 291 290 289 289 289 289 288 287 286 284 284 283 282
291 291 291 291 292 291 291 291 291 291 290 291 290 290 290 290 288 289 289 289 289 289 289 289 289 289 289 290 290 290 290 289 288 288 288 287 287 285 284 284 283 283
291 290 291 291 291 290 291 290 290 290 290 290 290 290 289 289 289 288 288 288 288 288 288 288 289 289 289 289 289 289 288 288 287 287 287 286 286 285 284 283 283 282
291 291 291 290 290 291 290 290 290 289 289 289 288 289 289 289 288 288 287 288 288 288 287 287 288 288 288 288 288 288 287 287 286 286 285 285 284 283 282 282 282 281
292 291 290 290 290 289 289 289 289 288 288 287 287 287 288 288 288 287 287 287 287 287 287 286 286 286 287 287 287 287 286 286 285 285 283 283 282 281 281 280 280 280
291 290 290 290 289 289 288 288 287 287 286 286 286 287 288 288 287 287 286 286 286 285 285 285 285 285 286 286 286 285 286 285 284 284 283 282 281 280 280 279 279 279
291 290 290 289 289 289 289 288 287 286 286 285 285 286 286 286 287 287 286 285 285 284 284 284 284 285 285 287 287 285 285 284 284 283 282 282 280 279 279 279 279 279
291 290 289 289 289 288 288 287 287 285 285 285 284 285 286 285 286 286 285 285 285 284 284 284 284 284 286 288 289 288 285 283 283 283 282 281 281 279 278 278 278 278
291 290 289 289 288 288 287 287 286 285 284 284 284 284 284 285 285 285 285 285 285 284 284 284 284 285 288 289 289 289 286 284 283 283 282 281 281 280 279 278 278 278
290 289 289 288 288 287 287 286 285 284 284 283 283 283 283 284 285 284 284 284 284 283 283 283 283 286 288 289 289 289 288 285 283 282 281 281 280 279 279 278 278 279
289 288 288 288 287 286 286 285 285 284 283 283 283 282 283 283 284 284 284 283 283 283 283 282 282 285 289 289 289 289 289 286 282 282 281 281 280 279 279 278 279 279
288 288 288 286 286 286 285 285 284 284 282 282 282 282 282 283 284 284 283 283 283 283 283 282 281 287 289 289 289 289 288 286 282 282 281 280 279 279 279 279 279 280
288 287 287 286 285 285 284 284 283 283 282 282 282 282 282 283 284 284 284 283 283 283 282 282 282 288 288 289 289 290 288 283 282 281 280 280 279 279 279 279 279 280
288 287 286 285 285 284 284 283 282 282 281 282 282 282 283 283 283 283 284 283 282 282 282 281 282 286 288 288 289 290 286 282 281 281 280 279 279 279 279 278 279 279
287 287 286 285 284 284 283 282 282 282 281 282 282 282 283 283 283 283 283 283 282 282 282 281 282 285 288 288 289 288 284 282 281 280 279 279 278 278 279 278 279 281
286 286 286 285 284 283 283 282 281 281 280 281 282 282 283 283 283 282 282 282 282 282 282 281 282 284 287 288 288 287 284 282 281 280 279 278 278 278 279 279 279 281
285 285 284 284 283 282 281 281 280 279 279 280 281 282 282 282 282 282 281 281 281 281 281 281 282 284 286 287 288 287 285 282 281 279 278 278 278 278 278 279 280 281

ECMWFNIL_sfc_thetae_084.txt.gz
Theta_e
303 302 303 303 303 304 303 302 302 302 303 302 302 301 301 302 302 302 302 303 304 305 306 307 307 307 308 307 306 305 304 303 302 302 301 301 300 299 298 298 296 295
301 301 301 302 302 301 302 302 302 302 302 301 301 300 300 300 299 301 301 302 302 304 305 306 306 307 307 306 305 304 303 302 301 302 301 300 300 299 298 298 296 295
300 300 301 301 302 301 300 300 300 301 301 300 300 300 299 300 300 300 301 301 301 302 303 304 305 305 306 305 304 303 302 301 301 300 300 300 300 299 298 298 296 294
300 301 301 301 300 300 298 298 298 299 299 299 299 299 299 299 300 300 300 298 300 300 300 301 302 303 304 304 303 301 301 301 301 299 298 297 296 296 296 294 294 293
300 300 300 299 298 298 297 299 298 298 298 299 298 297 297 298 298 297 297 296 297 296 296 298 298 299 300 301 301 298 297 298 296 295 296 296 295 295 296 294 294 294
297 298 298 298 298 298 298 299 299 297 297 295 298 297 297 297 296 296 296 295 294 294 294 294 295 295 295 296 296 296 296 296 295 295 295 295 295 293 294 293 294 293
296 296 296 297 296 297 297 298 297 296 296 296 293 295 294 294 295 295 295 295 295 294 294 294 294 294 293 294 294 294 294 295 294 294 295 295 294 292 292 292 293 293
295 293 296 295 296 295 294 295 294 293 293 291 293 293 293 294 294 294 294 294 294 294 293 293 293 294 293 293 293 294 294 294 294 293 294 294 292 292 290 291 292 291
293 293 293 293 293 294 293 293 292 291 290 292 292 291 291 293 294 294 294 293 293 293 293 293 293 293 292 292 293 294 294 293 293 293 293 293 291 292 291 290 289 289
293 292 291 292 292 293 293 292 291 291 290 291 291 291 291 291 292 293 293 293 293 292 292 292 292 292 292 292 293 293 294 293 292 292 293 293 292 292 290 289 289 288
292 291 291 291 292 292 292 291 290 290 290 291 290 291 291 292 292 292 292 292 292 292 291 291 291 292 292 292 292 293 293 293 292 292 292 292 292 291 288 288 288 288
292 291 292 292 292 291 291 291 290 290 290 289 290 292 291 291 292 292 292 291 291 292 291 291 291 291 291 292 292 292 292 291 291 291 291 291 290 289 288 288 288 287
293 293 293 292 291 291 290 290 290 290 290 290 289 291 291 291 291 291 290 291 291 291 291 291 291 290 291 291 291 291 291 290 290 289 289 289 288 288 287 287 287 286
294 293 292 292 292 290 290 290 290 290 290 290 289 289 290 290 290 291 290 290 290 290 290 290 290 290 290 290 290 290 290 289 289 288 288 288 287 287 286 286 286 286
295 292 291 291 290 290 290 290 290 290 289 289 289 289 289 289 289 290 290 289 289 289 289 289 289 289 289 289 289 289 289 289 288 288 288 287 286 285 285 285 285 285
293 291 290 289 289 290 290 290 289 289 288 288 288 288 288 288 287 287 288 289 289 288 288 288 288 289 288 289 290 289 289 289 288 287 287 287 285 284 284 284 284 284
292 291 290 289 290 289 289 289 288 288 287 287 287 287 287 287 287 287 287 288 288 288 287 287 287 288 288 290 291 291 289 288 287 287 286 286 285 284 283 282 282 282
292 291 289 290 289 289 289 288 287 287 287 287 286 286 286 285 286 286 286 286 287 287 287 286 286 287 289 290 291 291 289 287 287 286 286 285 285 284 283 281 281 280
290 290 290 289 289 288 288 287 287 287 287 286 286 286 284 285 286 285 285 285 286 286 286 286 286 287 289 290 291 291 290 288 286 286 285 285 284 283 282 280 280 279
289 289 289 289 288 287 287 287 286 287 287 286 285 284 284 285 284 284 285 284 285 286 286 286 286 287 289 289 290 290 290 289 286 285 285 284 283 282 281 280 280 279
289 289 289 288 287 287 286 287 287 287 286 285 285 284 284 284 284 283 284 284 284 285 286 286 285 287 289 289 289 290 290 289 285 284 283 283 283 282 281 280 280 280
288 288 288 288 287 286 286 286 286 286 285 283 283 282 283 282 282 283 283 283 284 285 285 285 285 287 288 289 290 290 291 286 284 283 283 283 282 281 280 280 280 280
287 288 288 287 286 286 286 286 285 284 283 282 282 282 282 282 282 282 283 283 283 284 284 284 284 285 287 288 289 290 290 285 283 283 282 281 281 280 279 279 280 280
287 287 287 287 286 286 286 285 284 283 283 282 283 281 281 281 281 281 282 282 283 284 284 284 283 284 287 288 289 290 288 284 283 282 281 280 280 280 279 279 280 281
286 286 287 287 286 286 285 285 283 283 282 281 282 281 282 281 281 281 281 283 284 284 284 283 283 283 287 288 289 289 287 283 282 281 280 279 279 278 279 279 279 281
286 286 286 286 286 285 284 284 282 280 280 280 280 281 280 280 281 281 281 282 283 283 283 283 282 283 285 288 288 289 286 283 282 281 279 279 279 278 278 278 279 280

ECMWFNIL_sfc_thetae_090.txt.gz
Theta_e
301 300 302 302 303 303 302 301 300 301 301 301 301 301 301 302 300 303 305 306 308 310 311 311 311 311 310 310 310 310 309 308 307 307 305 304 303 302 301 301 301 300
299 299 299 299 299 297 300 300 300 300 301 300 301 301 299 298 298 299 301 302 303 305 307 308 308 308 309 309 309 309 309 309 308 307 306 304 304 303 302 302 301 301
297 297 298 299 300 300 299 298 298 299 299 300 298 297 298 297 298 297 298 299 300 301 303 304 306 306 307 307 307 306 306 307 307 307 305 305 304 303 303 303 302 301
296 297 298 299 299 299 298 297 297 297 295 296 297 298 297 296 296 296 296 296 298 298 298 299 301 303 304 305 305 305 306 306 307 305 304 303 303 303 303 302 301 301
296 297 297 297 297 297 295 297 297 297 297 298 295 293 295 295 294 294 294 294 295 296 295 296 297 298 299 302 303 303 303 303 303 303 303 302 302 301 301 301 299 299
294 295 296 296 296 296 296 297 298 297 297 294 296 295 295 294 294 294 293 293 292 294 294 294 295 295 296 299 301 302 302 300 298 299 300 299 298 297 300 299 298 298
294 293 294 294 294 294 295 296 296 295 295 295 291 294 292 293 293 294 294 293 293 293 293 293 293 293 293 296 298 298 297 297 296 296 297 297 296 295 295 296 296 297
292 291 292 291 292 293 293 294 294 293 293 289 291 293 289 293 293 293 292 292 292 293 292 292 292 294 292 292 294 295 295 296 296 295 295 295 295 296 295 295 295 295
290 290 289 289 290 292 291 292 292 289 288 290 291 291 288 290 292 291 291 291 292 292 292 292 292 292 292 292 293 294 294 294 295 295 295 295 294 295 295 294 294 294
290 289 288 288 288 290 290 290 290 289 288 289 290 289 290 290 289 291 290 290 291 291 291 291 291 291 291 291 293 293 293 294 294 294 294 295 295 295 295 294 294 294
289 288 287 288 289 289 289 289 289 288 287 289 289 289 290 289 289 288 290 291 291 292 292 291 291 291 291 291 291 291 292 293 293 293 294 294 294 295 293 295 294 294
288 287 288 288 288 288 289 289 288 287 288 288 288 290 290 289 290 289 289 291 291 291 291 291 291 290 291 292 292 291 291 292 292 293 293 294 294 294 294 294 294 294
288 288 288 288 288 288 288 288 288 287 287 288 288 288 289 290 289 289 289 289 291 290 291 291 291 290 290 291 291 291 291 292 292 292 292 293 293 294 294 294 294 294
288 287 287 288 288 287 288 287 287 287 287 287 286 288 288 289 289 290 289 288 289 290 290 290 290 290 290 291 291 290 290 290 291 291 292 292 292 292 292 292 293 293
287 287 287 287 287 287 287 287 287 287 287 287 286 287 288 288 288 288 288 289 289 289 289 289 290 291 291 291 291 290 290 290 291 291 291 291 291 291 291 291 291 292
287 287 287 286 286 287 287 287 287 287 286 286 287 287 287 287 287 287 288 288 289 289 289 289 290 291 290 292 293 292 290 290 290 290 290 290 290 290 290 290 290 290
287 287 287 287 287 286 286 287 287 286 286 286 286 286 287 287 286 287 287 287 288 289 289 289 290 290 291 293 294 294 291 289 289 289 290 290 290 290 290 290 290 289
287 287 287 287 287 287 287 287 286 286 286 286 286 286 286 285 285 287 287 287 288 288 288 289 290 290 292 293 294 294 293 290 290 290 290 290 290 290 290 290 290 289
286 286 286 287 287 287 287 287 286 286 286 287 287 287 285 285 287 286 287 286 287 288 288 289 289 291 293 293 293 294 294 292 290 290 290 290 290 290 290 290 289 289
286 286 286 286 286 286 286 286 286 286 286 286 286 286 285 286 286 286 286 286 287 287 288 288 288 290 292 293 293 293 293 293 290 289 289 290 290 290 289 289 289 289
286 286 285 286 286 286 285 286 286 286 286 286 286 286 286 287 287 287 287 286 286 287 287 287 288 290 291 292 292 293 293 293 290 289 289 289 289 289 289 289 288 288
285 285 285 285 285 285 285 285 286 286 286 286 286 286 285 285 285 285 286 286 286 286 286 287 288 290 291 291 292 292 293 290 288 288 288 288 288 288 288 288 288 287
285 285 285 285 285 285 285 285 285 286 286 284 285 285 285 285 285 286 286 285 286 285 285 286 287 288 290 290 291 292 291 288 287 287 287 287 287 287 287 287 286 286
285 284 284 284 284 284 285 285 285 285 285 284 284 285 286 286 285 285 285 284 284 285 285 285 286 286 289 290 290 291 290 287 286 286 286 286 286 287 286 286 285 285
284 284 283 283 284 284 284 284 285 285 285 284 284 283 284 285 284 284 284 284 283 284 284 284 285 285 288 289 289 290 289 287 286 285 285 286 286 286 285 284 284 284
283 283 283 283 283 283 284 284 284 283 283 283 283 283 283 283 283 282 282 283 283 282 282 283 283 283 284 288 289 289 290 287 285 285 285 285 285 285 283 282 282 282

ECMWFNIL_sfc_thetae_093.txt.gz
Theta_e
303 304 306 306 307 307 307 307 306 306 307 307 307 307 307 308 308 309 311 313 313 314 315 315 314 314 313 313 313 313 312 311 311 311 309 307 306 305 304 304 303 303
301 302 302 303 303 303 304 305 306 305 306 305 306 307 306 305 304 305 307 308 309 310 312 313 313 313 313 312 311 310 311 310 309 308 308 306 306 306 305 305 304 304
299 299 300 301 303 303 303 303 303 303 304 305 304 303 304 303 304 302 304 304 306 307 307 309 310 310 310 311 310 309 309 309 308 307 306 307 306 306 306 305 305 304
297 298 300 300 301 301 302 301 301 301 301 301 302 303 302 302 301 302 301 300 303 304 304 305 306 307 308 307 307 307 307 307 308 307 306 306 306 306 306 306 305 305
297 298 298 299 299 299 299 300 300 301 300 301 301 300 300 300 300 300 300 299 300 301 301 301 302 304 304 305 305 305 305 305 306 306 305 305 306 306 306 305 303 303
295 296 297 298 298 298 299 299 299 299 300 299 300 300 299 299 299 299 298 298 298 299 299 299 300 300 300 301 302 303 304 303 304 304 304 304 304 303 304 303 303 301
295 295 296 296 296 296 297 298 298 298 298 299 296 298 297 297 297 298 298 298 298 297 297 298 298 298 298 299 300 301 302 302 302 301 301 301 301 299 299 299 299 299
293 293 293 293 293 294 294 295 295 296 296 294 295 297 295 297 297 297 297 296 296 297 296 296 297 298 298 297 298 298 299 300 300 298 298 298 298 298 298 298 298 298
291 291 290 290 290 292 292 293 293 292 292 293 294 294 293 294 295 295 294 294 295 295 296 295 296 295 295 295 296 296 297 297 299 298 297 297 297 297 298 297 296 296
291 291 290 291 291 292 291 291 291 291 291 291 292 292 293 293 292 293 293 293 293 294 294 294 294 294 294 294 295 295 296 296 296 296 297 296 297 297 297 297 297 296
291 291 291 291 291 291 291 291 291 291 290 291 291 291 292 292 292 291 292 292 293 293 294 294 294 294 294 294 294 295 295 295 296 296 296 296 296 297 294 296 296 296
291 291 291 290 290 290 290 290 290 290 290 290 290 291 291 291 291 291 291 292 293 293 293 293 294 294 294 294 295 294 294 294 294 295 295 295 295 296 296 295 295 296
290 290 290 290 290 290 290 290 290 290 289 290 290 289 290 291 291 291 291 291 292 292 292 293 293 293 293 294 294 294 294 294 294 294 294 294 295 295 296 296 295 296
289 289 289 289 289 289 289 289 289 290 290 290 289 289 289 290 290 291 291 291 291 291 292 292 292 292 293 293 293 293 293 293 293 293 293 294 294 294 294 295 295 295
289 289 289 288 288 289 289 289 289 289 289 288 288 289 289 289 289 290 290 290 290 290 290 291 291 292 293 293 293 293 293 293 293 293 293 293 293 293 294 294 294 294
288 288 288 288 288 288 288 288 288 288 288 288 288 288 288 288 288 289 289 289 289 290 290 290 291 292 290 291 292 293 293 293 293 293 292 292 292 292 292 293 293 294
287 287 287 287 288 287 287 287 288 288 287 287 288 288 288 288 288 288 289 289 289 289 290 290 291 291 290 292 293 294 293 293 292 293 292 292 292 292 292 292 292 293
287 287 287 287 287 287 287 287 286 286 287 287 287 287 288 288 287 288 288 289 289 289 289 289 290 290 292 292 293 293 293 293 293 292 292 292 292 292 292 292 292 293
286 286 286 286 287 286 286 286 285 286 286 286 287 287 286 286 288 288 288 288 288 288 289 289 289 290 291 292 293 293 294 293 293 293 292 291 292 292 291 292 292 292
286 286 286 286 286 286 286 286 286 286 286 286 286 286 287 287 287 287 287 287 288 288 288 289 289 289 291 291 292 292 293 293 293 292 292 292 292 292 292 292 292 292
285 285 285 285 285 285 285 285 285 286 286 286 286 286 286 286 287 287 287 287 287 287 288 288 289 290 291 291 292 292 293 293 292 292 291 291 291 291 291 291 291 291
284 284 284 284 284 284 284 284 285 285 285 286 285 286 286 286 286 286 286 286 287 286 287 287 288 290 290 291 291 292 293 291 291 290 290 290 290 291 291 291 291 291
284 284 283 283 283 283 283 283 284 284 285 284 284 285 285 285 285 286 286 286 286 286 286 286 287 288 289 290 291 291 291 289 289 289 289 289 289 290 290 291 290 290
283 283 282 282 282 282 282 283 283 284 284 284 283 283 284 285 285 285 285 285 285 285 285 285 286 287 288 289 290 290 290 288 288 288 288 288 288 289 290 289 289 287
283 282 281 281 281 281 281 281 282 282 283 283 283 283 283 284 284 284 284 285 285 284 284 284 285 285 287 288 289 289 289 287 288 287 287 287 288 288 288 288 288 287
282 281 281 280 280 281 281 281 281 281 281 282 282 282 282 283 283 283 282 283 284 283 284 284 284 284 285 286 288 288 289 288 288 287 286 286 287 287 287 287 287 286

ECMWFNIL_sfc_thetae_096.txt.gz
Theta_e
316 316 316 316 316 317 316 316 316 315 315 316 315 316 317 317 318 318 317 317 318 318 318 318 319 319 319 319 319 318 318 317 317 316 314 313 311 310 309 310 309 309
311 311 312 312 313 313 313 314 314 313 314 314 315 315 316 316 316 316 316 316 316 316 316 316 317 317 317 317 316 316 316 316 315 316 314 313 312 312 311 312 312 311
309 309 310 310 311 312 312 312 311 311 311 312 313 313 313 314 313 313 313 313 314 314 314 314 314 315 315 315 315 314 314 314 313 314 312 312 312 311 311 310 310 309
308 307 308 308 309 309 309 309 310 310 310 310 310 311 311 311 311 311 311 309 310 311 312 313 312 312 312 313 313 312 312 312 312 313 312 311 311 311 311 311 310 309
306 306 307 307 307 307 307 307 308 308 308 309 309 309 309 309 309 309 309 309 310 309 310 310 311 310 310 310 310 310 310 309 310 310 309 309 310 310 310 309 309 308
305 305 305 305 305 306 306 306 307 307 307 307 308 307 307 307 307 307 308 307 308 308 308 308 309 309 308 307 307 308 308 307 308 308 307 307 307 308 308 308 307 306
303 303 303 304 304 304 304 305 305 304 305 305 304 305 306 305 305 306 306 306 306 306 306 306 307 307 307 306 305 304 305 306 306 306 305 305 306 305 306 306 306 305
301 301 301 301 302 302 302 302 302 302 302 302 302 303 303 303 303 304 304 305 304 304 304 305 305 305 305 305 303 303 303 304 304 304 304 303 303 302 302 304 303 302
300 299 299 300 300 300 300 300 300 300 300 300 301 301 301 301 302 302 302 302 301 301 302 302 302 302 303 302 302 302 302 302 303 302 301 300 300 300 300 300 300 299
298 298 298 298 299 299 298 298 298 299 298 298 299 299 299 300 300 300 300 299 299 299 299 299 298 298 299 299 300 300 299 300 300 300 300 300 300 299 299 299 299 299
298 298 298 297 297 298 297 297 297 298 298 297 298 298 299 299 299 299 298 298 298 298 298 297 297 298 297 298 298 298 298 297 298 298 298 298 299 299 296 298 298 298
297 297 297 297 296 297 297 297 297 297 297 297 297 297 297 298 298 298 298 298 298 298 297 297 297 297 297 296 297 297 297 297 296 297 297 297 298 298 298 298 297 297
296 296 296 296 296 296 296 297 296 296 296 296 296 296 296 297 297 297 298 297 297 298 297 297 297 297 297 297 297 297 296 296 296 296 296 296 296 297 297 297 297 297
295 295 295 295 295 296 296 296 296 296 295 295 295 295 296 296 296 296 296 297 297 297 297 297 297 297 297 297 296 296 296 296 296 295 295 295 296 296 296 296 296 296
294 294 295 294 294 294 294 294 294 295 294 294 295 295 296 295 295 295 295 295 296 296 296 297 296 297 297 297 297 297 297 296 296 295 295 295 295 295 296 296 296 296
293 293 293 293 293 293 293 293 293 293 293 293 293 294 294 295 294 295 295 295 295 295 296 296 296 297 293 291 292 294 295 295 295 295 295 294 294 294 295 295 296 296
292 292 292 291 292 292 292 291 291 292 292 292 292 293 292 293 294 294 294 295 295 295 295 295 296 296 292 293 293 293 293 294 294 294 295 294 294 293 293 294 295 295
291 291 291 291 290 290 290 290 290 289 289 289 290 291 291 291 291 292 293 293 294 294 294 294 295 292 293 293 292 293 292 293 295 294 294 294 294 294 294 294 294 294
290 289 289 289 289 289 288 288 288 289 289 289 289 289 289 289 291 291 292 292 293 293 293 293 294 292 292 292 292 292 292 292 294 294 294 294 294 294 294 294 294 293
289 288 288 288 288 288 288 287 288 288 288 288 289 289 288 289 289 290 290 291 291 291 291 292 292 291 292 292 291 292 292 292 293 294 294 294 294 294 294 294 294 293
288 288 287 287 287 287 287 287 287 287 287 287 288 288 288 288 288 288 288 288 289 289 290 290 292 291 291 291 291 292 292 292 293 293 293 293 294 294 294 294 294 294
287 287 287 286 286 286 286 286 286 286 286 287 287 287 288 288 288 288 288 287 288 288 288 288 290 290 290 290 291 291 292 291 292 292 292 292 292 293 293 294 294 294
287 286 285 285 285 285 285 285 285 285 286 286 286 286 286 287 287 287 287 287 287 287 287 287 288 289 289 289 290 291 291 290 289 290 290 290 291 292 293 293 293 293
286 285 284 284 284 284 284 284 285 285 285 286 285 285 285 286 286 286 287 287 286 286 287 286 287 287 288 289 289 290 289 288 289 289 289 289 289 291 292 292 292 288
285 284 283 283 283 283 283 283 284 284 285 285 285 285 285 286 286 286 286 286 286 286 285 286 286 286 287 288 289 289 289 288 288 288 288 288 289 289 290 290 291 290
283 283 283 282 282 282 283 283 283 284 284 284 284 284 285 285 285 285 284 285 286 286 286 286 286 287 287 288 288 289 289 288 288 288 287 287 288 289 289 289 290 291

ECMWFNIL_sfc_thetae_099.txt.gz
Theta_e
319 319 319 319 319 320 319 318 318 317 317 317 316 317 317 318 318 318 318 318 318 317 317 317 318 318 319 320 320 320 319 318 318 318 317 316 315 314 313 312 311 309
317 317 316 316 316 315 315 315 314 314 314 314 315 315 316 316 316 316 315 316 316 316 316 316 316 316 316 316 317 316 316 316 316 318 316 315 315 315 314 313 312 311
313 313 313 313 313 314 313 313 313 313 312 313 313 313 313 313 313 313 313 313 313 314 314 315 315 315 314 314 315 315 314 314 314 315 315 314 314 313 313 313 313 312
311 311 311 311 311 311 311 311 311 311 312 311 312 312 311 312 311 311 311 309 311 311 312 312 313 313 313 313 312 312 312 312 312 312 312 312 312 312 312 312 312 311
309 309 309 309 309 309 310 310 310 310 310 310 310 310 310 310 310 310 310 310 310 309 310 310 311 311 311 311 310 309 310 310 310 310 309 309 310 310 310 310 309 308
308 308 308 308 308 308 308 308 308 307 307 308 307 307 308 308 308 308 308 307 308 308 308 308 308 309 309 309 309 308 307 307 308 309 308 307 308 309 309 309 308 306
305 305 305 306 306 306 305 305 305 305 305 304 305 306 305 305 305 305 306 306 306 306 306 306 306 306 307 307 306 306 305 305 305 305 305 305 306 306 306 306 306 305
303 303 303 304 304 303 303 303 303 302 302 303 303 304 304 303 303 304 304 304 303 303 304 304 304 304 305 305 304 304 304 304 304 303 303 303 304 303 303 304 303 302
302 301 302 302 301 301 301 300 301 301 301 301 301 302 302 302 302 302 302 302 302 302 302 302 302 301 301 301 301 301 301 301 302 302 301 301 300 300 301 301 300 300
301 301 301 300 300 300 299 299 299 300 299 300 300 300 300 301 301 301 300 300 300 301 301 300 300 300 299 299 299 299 299 299 299 299 299 299 299 299 299 299 298 298
300 300 299 299 299 299 298 299 298 298 299 299 299 299 299 299 300 300 300 300 300 299 300 299 299 299 299 299 298 298 298 298 298 297 297 297 298 298 295 297 296 296
298 298 297 297 297 298 298 298 298 298 298 298 297 297 298 299 298 298 298 298 298 299 299 299 299 299 298 298 298 298 298 298 297 297 297 297 297 296 296 296 296 296
296 296 296 296 296 296 296 296 296 296 296 296 296 296 296 296 297 297 297 297 297 298 298 298 298 298 299 299 299 299 298 297 297 296 296 296 296 295 296 296 295 295
295 295 295 295 295 295 295 295 295 295 295 295 295 295 295 295 295 295 296 296 297 297 297 298 297 297 298 298 298 298 298 297 297 296 296 296 296 296 296 295 295 295
295 295 294 295 294 294 293 293 293 293 293 293 293 294 294 294 294 294 294 294 295 295 296 297 297 298 298 298 296 295 296 295 295 295 295 294 294 295 295 295 295 296
293 293 293 293 292 292 292 292 292 292 292 292 292 292 292 293 293 293 293 294 293 294 294 296 297 298 294 292 292 293 293 294 294 294 294 294 293 294 294 295 295 295
292 292 292 291 291 291 290 290 290 290 290 290 290 291 291 292 291 291 292 292 292 293 293 294 295 296 292 293 294 293 293 293 292 293 293 293 293 293 293 293 294 295
291 290 290 290 290 289 289 289 289 288 289 289 289 289 289 290 290 290 291 291 292 292 292 292 292 291 293 293 293 293 292 291 292 292 292 292 293 293 293 293 293 294
290 289 289 289 288 288 288 287 287 287 287 287 287 288 289 289 289 289 289 290 290 290 290 290 291 291 292 292 292 292 292 291 291 291 291 291 292 292 292 293 293 293
289 288 288 288 288 288 287 286 286 286 287 286 287 288 288 287 287 288 288 289 289 289 289 289 289 290 291 291 291 291 292 291 291 291 291 291 291 291 292 292 292 292
288 288 287 287 287 286 286 286 286 286 286 286 287 287 286 286 287 287 287 287 287 287 287 287 289 290 290 291 291 291 291 291 290 290 290 290 291 291 292 291 291 292
287 286 286 286 285 285 285 285 285 285 285 286 286 286 286 287 287 287 286 286 286 286 286 286 287 289 290 290 290 290 291 289 289 289 288 289 289 289 290 291 291 291
286 285 284 284 284 284 284 284 284 284 285 286 285 285 286 286 286 286 286 286 286 286 286 286 286 288 289 289 289 290 289 287 287 287 287 287 287 288 289 289 290 290
285 284 283 283 283 283 283 283 284 284 285 286 285 284 284 285 285 286 286 286 286 285 285 285 285 286 287 288 289 289 288 287 286 286 286 286 286 287 288 288 289 288
284 283 282 282 282 282 282 282 283 283 284 285 284 284 284 285 285 285 285 285 285 285 285 285 285 285 287 288 289 289 288 286 287 286 286 286 286 286 287 287 288 288
282 281 280 281 280 281 281 282 282 283 282 282 282 283 284 284 284 284 283 283 284 284 285 285 285 285 286 288 288 289 289 287 286 286 285 285 285 286 285 286 287 287